Time,TemperatureF,DewpointF,PressureIn,WindDirection,WindDirectionDegrees,WindSpeedMPH,WindSpeedGustMPH,Humidity,HourlyPrecipIn,Conditions,Clouds,dailyrainin,SoftwareType,DateUTC
2013-02-13 00:01:00,22.3,19.6,29.88,SW,225,2.0,3.0,89,0.00,,,0.00,Wunderground v.1.15,2013-02-13 06:01:00,
2013-02-13 00:03:00,22.2,19.5,29.88,SW,225,2.0,3.0,89,0.00,,,0.00,Wunderground v.1.15,2013-02-13 06:03:00,
2013-02-13 00:06:00,22.2,19.7,29.88,SW,226,3.0,3.0,90,0.00,,,0.00,Wunderground v.1.15,2013-02-13 06:06:00,
2013-02-13 00:07:00,22.2,19.7,29.88,SW,232,3.0,3.0,90,0.00,,,0.00,Wunderground v.1.15,2013-02-13 06:07:00,
2013-02-13 00:10:00,22.3,19.8,29.88,WSW,243,3.0,6.0,90,0.00,,,0.00,Wunderground v.1.15,2013-02-13 06:10:00,
2013-02-13 00:11:00,22.3,19.8,29.88,WSW,243,3.0,6.0,90,0.00,,,0.00,Wunderground v.1.15,2013-02-13 06:11:00,
2013-02-13 00:12:00,22.2,19.7,29.88,WSW,243,3.0,6.0,90,0.00,,,0.00,Wunderground v.1.15,2013-02-13 06:12:00,
2013-02-13 00:13:00,22.2,19.7,29.88,WSW,243,3.0,6.0,90,0.00,,,0.00,Wunderground v.1.15,2013-02-13 06:13:00,
2013-02-13 00:18:00,22.3,19.8,29.88,WSW,249,4.0,5.0,90,0.00,,,0.00,Wunderground v.1.15,2013-02-13 06:18:00,
2013-02-13 00:20:00,22.3,19.8,29.88,WSW,243,4.0,5.0,90,0.00,,,0.00,Wunderground v.1.15,2013-02-13 06:20:00,
2013-02-13 00:22:00,22.3,19.8,29.88,WSW,252,4.0,5.0,90,0.00,,,0.00,Wunderground v.1.15,2013-02-13 06:22:00,
2013-02-13 00:23:00,22.2,19.7,29.88,WSW,249,4.0,6.0,90,0.00,,,0.00,Wunderground v.1.15,2013-02-13 06:23:00,
2013-02-13 00:24:00,22.3,19.8,29.88,WSW,250,4.0,6.0,90,0.00,,,0.00,Wunderground v.1.15,2013-02-13 06:24:00,
2013-02-13 00:27:00,22.3,19.8,29.88,WSW,248,5.0,6.0,90,0.00,,,0.00,Wunderground v.1.15,2013-02-13 06:27:00,
2013-02-13 00:29:00,22.2,19.7,29.87,WSW,248,5.0,6.0,90,0.00,,,0.00,Wunderground v.1.15,2013-02-13 06:29:00,
2013-02-13 00:30:00,22.2,19.7,29.87,WSW,248,5.0,6.0,90,0.00,,,0.00,Wunderground v.1.15,2013-02-13 06:30:00,
2013-02-13 00:31:00,22.2,19.7,29.88,WSW,249,5.0,6.0,90,0.00,,,0.00,Wunderground v.1.15,2013-02-13 06:31:00,
2013-02-13 00:36:00,22.0,19.5,29.87,WSW,246,4.0,4.0,90,0.00,,,0.00,Wunderground v.1.15,2013-02-13 06:36:00,
2013-02-13 00:38:00,21.9,19.4,29.87,WSW,244,4.0,6.0,90,0.00,,,0.00,Wunderground v.1.15,2013-02-13 06:38:00,
2013-02-13 00:40:00,21.8,19.0,29.87,WSW,244,3.0,-999.0,90,-99.99,,,0.00,weatherlink.com 1.10,2013-02-13 06:40:00,
2013-02-13 00:42:00,21.7,19.2,29.87,WSW,244,4.0,6.0,90,0.00,,,0.00,Wunderground v.1.15,2013-02-13 06:42:00,
2013-02-13 00:45:00,21.6,19.1,29.87,WSW,245,3.0,6.0,90,0.00,,,0.00,Wunderground v.1.15,2013-02-13 06:45:00,
2013-02-13 00:47:00,21.6,19.4,29.87,WSW,244,3.0,6.0,91,0.00,,,0.00,Wunderground v.1.15,2013-02-13 06:47:00,
2013-02-13 00:48:00,21.6,19.4,29.87,WSW,247,3.0,6.0,91,0.00,,,0.00,Wunderground v.1.15,2013-02-13 06:48:00,
2013-02-13 00:52:00,21.5,19.3,29.87,SW,236,3.0,6.0,91,0.00,,,0.00,Wunderground v.1.15,2013-02-13 06:52:00,
2013-02-13 00:53:00,21.5,19.3,29.87,WSW,238,3.0,6.0,91,0.00,,,0.00,Wunderground v.1.15,2013-02-13 06:53:00,
2013-02-13 00:54:00,21.5,19.3,29.87,WSW,241,4.0,6.0,91,0.00,,,0.00,Wunderground v.1.15,2013-02-13 06:54:00,
2013-02-13 00:55:00,21.5,19.3,29.87,SW,227,4.0,6.0,91,0.00,,,0.00,Wunderground v.1.15,2013-02-13 06:55:00,
2013-02-13 01:00:00,21.6,19.4,29.87,WSW,243,4.0,5.0,91,0.00,,,0.00,Wunderground v.1.15,2013-02-13 07:00:00,
2013-02-13 01:01:00,21.6,19.4,29.87,WSW,243,4.0,5.0,91,0.00,,,0.00,Wunderground v.1.15,2013-02-13 07:01:00,
2013-02-13 01:02:00,21.6,19.4,29.87,WSW,243,4.0,5.0,91,0.00,,,0.00,Wunderground v.1.15,2013-02-13 07:02:00,
2013-02-13 01:06:00,21.7,19.5,29.87,WSW,246,4.0,5.0,91,0.00,,,0.00,Wunderground v.1.15,2013-02-13 07:06:00,
2013-02-13 01:08:00,21.8,19.6,29.87,SW,232,4.0,5.0,91,0.00,,,0.00,Wunderground v.1.15,2013-02-13 07:08:00,
2013-02-13 01:09:00,21.9,19.9,29.87,WSW,241,5.0,5.0,92,0.00,,,0.00,Wunderground v.1.15,2013-02-13 07:09:00,
2013-02-13 01:13:00,22.1,19.9,29.87,WSW,248,5.0,6.0,91,0.00,,,0.00,Wunderground v.1.15,2013-02-13 07:13:00,
2013-02-13 01:14:00,22.1,19.9,29.87,SW,236,5.0,6.0,91,0.00,,,0.00,Wunderground v.1.15,2013-02-13 07:14:00,
2013-02-13 01:15:00,22.2,20.0,29.86,WSW,245,5.0,6.0,91,0.00,,,0.00,Wunderground v.1.15,2013-02-13 07:15:00,
2013-02-13 01:19:00,22.5,20.3,29.87,SW,235,5.0,6.0,91,0.00,,,0.00,Wunderground v.1.15,2013-02-13 07:19:00,
2013-02-13 01:21:00,22.5,20.3,29.87,WSW,238,5.0,6.0,91,0.00,,,0.00,Wunderground v.1.15,2013-02-13 07:21:00,
2013-02-13 01:24:00,22.4,20.2,29.87,WSW,238,5.0,6.0,91,0.00,,,0.00,Wunderground v.1.15,2013-02-13 07:24:00,
2013-02-13 01:27:00,22.2,20.0,29.86,WSW,238,5.0,7.0,91,0.00,,,0.00,Wunderground v.1.15,2013-02-13 07:27:00,
2013-02-13 01:29:00,22.2,20.0,29.86,WSW,238,5.0,7.0,91,0.00,,,0.00,Wunderground v.1.15,2013-02-13 07:29:00,
2013-02-13 01:31:00,22.1,19.9,29.86,WSW,238,4.0,7.0,91,0.00,,,0.00,Wunderground v.1.15,2013-02-13 07:31:00,
2013-02-13 01:32:00,22.0,19.8,29.86,WSW,238,4.0,7.0,91,0.00,,,0.00,Wunderground v.1.15,2013-02-13 07:32:00,
2013-02-13 01:36:00,21.8,19.6,29.86,WSW,238,3.0,3.0,91,0.00,,,0.00,Wunderground v.1.15,2013-02-13 07:36:00,
2013-02-13 01:37:00,21.8,19.6,29.86,WSW,238,3.0,7.0,91,0.00,,,0.00,Wunderground v.1.15,2013-02-13 07:37:00,
2013-02-13 01:38:00,21.8,19.6,29.86,WSW,238,2.0,7.0,91,0.00,,,0.00,Wunderground v.1.15,2013-02-13 07:38:00,
2013-02-13 01:40:00,21.8,19.6,29.86,WSW,238,2.0,7.0,91,0.00,,,0.00,Wunderground v.1.15,2013-02-13 07:40:00,
2013-02-13 01:42:00,21.9,19.7,29.86,WSW,238,2.0,7.0,91,0.00,,,0.00,Wunderground v.1.15,2013-02-13 07:42:00,
2013-02-13 01:44:00,21.9,19.7,29.86,WSW,238,2.0,7.0,91,0.00,,,0.00,Wunderground v.1.15,2013-02-13 07:44:00,
2013-02-13 01:47:00,22.0,19.8,29.86,SW,234,3.0,7.0,91,0.00,,,0.00,Wunderground v.1.15,2013-02-13 07:47:00,
2013-02-13 01:51:00,22.0,19.8,29.86,SW,236,3.0,7.0,91,0.00,,,0.00,Wunderground v.1.15,2013-02-13 07:51:00,
2013-02-13 01:53:00,22.0,19.8,29.86,WSW,245,3.0,7.0,91,0.00,,,0.00,Wunderground v.1.15,2013-02-13 07:53:00,
2013-02-13 01:54:00,22.0,19.8,29.86,WSW,244,3.0,7.0,91,0.00,,,0.00,Wunderground v.1.15,2013-02-13 07:54:00,
2013-02-13 01:56:00,22.0,19.8,29.86,SW,225,3.0,3.0,91,0.00,,,0.00,Wunderground v.1.15,2013-02-13 07:56:00,
2013-02-13 01:58:00,22.0,19.8,29.86,SW,231,3.0,5.0,91,0.00,,,0.00,Wunderground v.1.15,2013-02-13 07:58:00,
2013-02-13 02:01:00,22.0,19.8,29.85,SW,231,4.0,5.0,91,0.00,,,0.00,Wunderground v.1.15,2013-02-13 08:01:00,
2013-02-13 02:02:00,22.0,19.8,29.86,WSW,241,4.0,7.0,91,0.00,,,0.00,Wunderground v.1.15,2013-02-13 08:02:00,
2013-02-13 02:05:00,22.1,19.9,29.86,WSW,250,4.0,8.0,91,0.00,,,0.00,Wunderground v.1.15,2013-02-13 08:05:00,
2013-02-13 02:06:00,22.1,19.9,29.85,WSW,246,4.0,4.0,91,0.00,,,0.00,Wunderground v.1.15,2013-02-13 08:06:00,
2013-02-13 02:11:00,22.1,20.0,29.85,SW,232,5.0,-999.0,91,-99.99,,,0.00,weatherlink.com 1.10,2013-02-13 08:11:00,
2013-02-13 02:12:00,22.1,19.9,29.85,WSW,245,5.0,6.0,91,0.00,,,0.00,Wunderground v.1.15,2013-02-13 08:12:00,
2013-02-13 02:16:00,22.2,20.0,29.85,WSW,250,5.0,5.0,91,0.00,,,0.00,Wunderground v.1.15,2013-02-13 08:16:00,
2013-02-13 02:18:00,22.2,20.0,29.85,SW,232,5.0,5.0,91,0.00,,,0.00,Wunderground v.1.15,2013-02-13 08:18:00,
2013-02-13 02:23:00,22.2,20.0,29.85,WSW,246,4.0,6.0,91,0.00,,,0.00,Wunderground v.1.15,2013-02-13 08:23:00,
2013-02-13 02:26:00,22.2,20.0,29.85,WSW,249,3.0,-999.0,91,-99.99,,,0.00,weatherlink.com 1.10,2013-02-13 08:26:00,
2013-02-13 02:29:00,22.3,20.1,29.85,WSW,238,5.0,7.0,91,0.00,,,0.00,Wunderground v.1.15,2013-02-13 08:29:00,
2013-02-13 02:30:00,22.4,20.2,29.85,WSW,251,5.0,7.0,91,0.00,,,0.00,Wunderground v.1.15,2013-02-13 08:30:00,
2013-02-13 02:33:00,22.4,20.2,29.85,WSW,246,5.0,7.0,91,0.00,,,0.00,Wunderground v.1.15,2013-02-13 08:33:00,
2013-02-13 02:35:00,22.3,20.1,29.85,WSW,255,5.0,7.0,91,0.00,,,0.00,Wunderground v.1.15,2013-02-13 08:35:00,
2013-02-13 02:37:00,22.3,20.1,29.85,WSW,255,5.0,7.0,91,0.00,,,0.00,Wunderground v.1.15,2013-02-13 08:37:00,
2013-02-13 02:39:00,22.2,20.0,29.85,WSW,242,5.0,7.0,91,0.00,,,0.00,Wunderground v.1.15,2013-02-13 08:39:00,
2013-02-13 02:40:00,22.3,20.1,29.85,WSW,248,5.0,7.0,91,0.00,,,0.00,Wunderground v.1.15,2013-02-13 08:40:00,
2013-02-13 02:41:00,22.3,20.1,29.84,WSW,239,5.0,7.0,91,0.00,,,0.00,Wunderground v.1.15,2013-02-13 08:41:00,
2013-02-13 02:44:00,22.2,20.0,29.84,WSW,242,4.0,7.0,91,0.00,,,0.00,Wunderground v.1.15,2013-02-13 08:44:00,
2013-02-13 02:46:00,22.1,19.9,29.84,SW,236,4.0,7.0,91,0.00,,,0.00,Wunderground v.1.15,2013-02-13 08:46:00,
2013-02-13 02:50:00,22.0,19.8,29.84,WSW,244,4.0,7.0,91,0.00,,,0.00,Wunderground v.1.15,2013-02-13 08:50:00,
2013-02-13 02:51:00,22.0,19.8,29.84,WSW,244,4.0,7.0,91,0.00,,,0.00,Wunderground v.1.15,2013-02-13 08:51:00,
2013-02-13 02:52:00,22.0,19.8,29.84,WSW,244,4.0,7.0,91,0.00,,,0.00,Wunderground v.1.15,2013-02-13 08:52:00,
2013-02-13 02:53:00,22.0,19.8,29.84,WSW,244,4.0,7.0,91,0.00,,,0.00,Wunderground v.1.15,2013-02-13 08:53:00,
2013-02-13 02:58:00,21.8,19.6,29.84,WSW,240,4.0,4.0,91,0.00,,,0.00,Wunderground v.1.15,2013-02-13 08:58:00,
2013-02-13 02:59:00,21.8,19.6,29.84,SW,227,4.0,4.0,91,0.00,,,0.00,Wunderground v.1.15,2013-02-13 08:59:00,
2013-02-13 03:00:00,21.8,19.6,29.84,SW,229,4.0,5.0,91,0.00,,,0.00,Wunderground v.1.15,2013-02-13 09:00:00,
2013-02-13 03:01:00,21.8,19.8,29.84,SW,233,4.0,5.0,92,0.00,,,0.00,Wunderground v.1.15,2013-02-13 09:01:00,
2013-02-13 03:06:00,21.7,19.5,29.84,WSW,241,4.0,4.0,91,0.00,,,0.00,Wunderground v.1.15,2013-02-13 09:06:00,
2013-02-13 03:07:00,21.7,19.7,29.84,WSW,242,4.0,5.0,92,0.00,,,0.00,Wunderground v.1.15,2013-02-13 09:07:00,
2013-02-13 03:08:00,21.7,19.7,29.84,WSW,242,4.0,5.0,92,0.00,,,0.00,Wunderground v.1.15,2013-02-13 09:08:00,
2013-02-13 03:09:00,21.8,19.8,29.84,WSW,243,4.0,5.0,92,0.00,,,0.00,Wunderground v.1.15,2013-02-13 09:09:00,
2013-02-13 03:11:00,21.8,19.8,29.84,WSW,250,4.0,5.0,92,0.00,,,0.00,Wunderground v.1.15,2013-02-13 09:11:00,
2013-02-13 03:13:00,21.8,19.8,29.84,WSW,257,5.0,6.0,92,0.00,,,0.00,Wunderground v.1.15,2013-02-13 09:13:00,
2013-02-13 03:16:00,21.8,19.8,29.84,WSW,254,5.0,6.0,92,0.00,,,0.00,Wunderground v.1.15,2013-02-13 09:16:00,
2013-02-13 03:18:00,21.8,19.8,29.84,WSW,254,5.0,6.0,92,0.00,,,0.00,Wunderground v.1.15,2013-02-13 09:18:00,
2013-02-13 03:21:00,21.7,19.7,29.84,WSW,254,5.0,6.0,92,0.00,,,0.00,Wunderground v.1.15,2013-02-13 09:21:00,
2013-02-13 03:25:00,21.6,19.6,29.83,WSW,254,5.0,7.0,92,0.00,,,0.00,Wunderground v.1.15,2013-02-13 09:25:00,
2013-02-13 03:27:00,21.6,20.0,29.84,WSW,255,4.0,-999.0,92,-99.99,,,0.00,weatherlink.com 1.10,2013-02-13 09:27:00,
2013-02-13 03:29:00,21.6,19.6,29.83,WSW,254,5.0,9.0,92,0.00,,,0.00,Wunderground v.1.15,2013-02-13 09:29:00,
2013-02-13 03:30:00,21.5,19.5,29.83,WSW,254,5.0,9.0,92,0.00,,,0.00,Wunderground v.1.15,2013-02-13 09:30:00,
2013-02-13 03:32:00,21.5,19.5,29.83,WSW,254,5.0,9.0,92,0.00,,,0.00,Wunderground v.1.15,2013-02-13 09:32:00,
2013-02-13 03:34:00,21.4,19.4,29.83,WSW,246,4.0,9.0,92,0.00,,,0.00,Wunderground v.1.15,2013-02-13 09:34:00,
2013-02-13 03:37:00,21.3,19.3,29.83,WSW,251,4.0,9.0,92,0.00,,,0.00,Wunderground v.1.15,2013-02-13 09:37:00,
2013-02-13 03:38:00,21.3,19.3,29.83,WSW,252,4.0,9.0,92,0.00,,,0.00,Wunderground v.1.15,2013-02-13 09:38:00,
2013-02-13 03:39:00,21.3,19.3,29.83,WSW,252,4.0,9.0,92,0.00,,,0.00,Wunderground v.1.15,2013-02-13 09:39:00,
2013-02-13 03:43:00,21.3,19.3,29.83,WSW,249,5.0,9.0,92,0.00,,,0.00,Wunderground v.1.15,2013-02-13 09:43:00,
2013-02-13 03:45:00,21.3,19.3,29.83,WSW,251,5.0,9.0,92,0.00,,,0.00,Wunderground v.1.15,2013-02-13 09:45:00,
2013-02-13 03:46:00,21.3,19.3,29.83,WSW,251,5.0,9.0,92,0.00,,,0.00,Wunderground v.1.15,2013-02-13 09:46:00,
2013-02-13 03:49:00,21.2,19.2,29.83,WSW,251,5.0,9.0,92,0.00,,,0.00,Wunderground v.1.15,2013-02-13 09:49:00,
2013-02-13 03:51:00,21.2,19.2,29.83,WSW,251,4.0,9.0,92,0.00,,,0.00,Wunderground v.1.15,2013-02-13 09:51:00,
2013-02-13 03:53:00,21.1,19.1,29.83,WSW,251,4.0,9.0,92,0.00,,,0.00,Wunderground v.1.15,2013-02-13 09:53:00,
2013-02-13 03:54:00,21.1,19.1,29.83,WSW,251,4.0,9.0,92,0.00,,,0.00,Wunderground v.1.15,2013-02-13 09:54:00,
2013-02-13 03:58:00,21.1,19.4,29.83,WSW,251,4.0,4.0,93,0.00,,,0.00,Wunderground v.1.15,2013-02-13 09:58:00,
2013-02-13 03:59:00,21.2,19.5,29.82,WSW,251,4.0,4.0,93,0.00,,,0.00,Wunderground v.1.15,2013-02-13 09:59:00,
2013-02-13 04:01:00,21.2,19.5,29.83,WSW,251,4.0,4.0,93,0.00,,,0.00,Wunderground v.1.15,2013-02-13 10:01:00,
2013-02-13 04:02:00,21.3,19.6,29.82,WSW,251,4.0,4.0,93,0.00,,,0.00,Wunderground v.1.15,2013-02-13 10:02:00,
2013-02-13 04:07:00,21.3,19.6,29.82,WSW,251,4.0,4.0,93,0.00,,,0.00,Wunderground v.1.15,2013-02-13 10:07:00,
2013-02-13 04:10:00,21.2,19.5,29.82,WSW,251,3.0,4.0,93,0.00,,,0.00,Wunderground v.1.15,2013-02-13 10:10:00,
2013-02-13 04:11:00,21.2,20.0,29.82,WSW,251,3.0,-999.0,93,-99.99,,,0.00,weatherlink.com 1.10,2013-02-13 10:11:00,
2013-02-13 04:14:00,21.0,19.3,29.82,WSW,251,3.0,4.0,93,0.00,,,0.00,Wunderground v.1.15,2013-02-13 10:14:00,
2013-02-13 04:16:00,20.9,19.2,29.82,WSW,251,2.0,2.0,93,0.00,,,0.00,Wunderground v.1.15,2013-02-13 10:16:00,
2013-02-13 04:18:00,20.9,18.9,29.82,WSW,251,2.0,2.0,92,0.00,,,0.00,Wunderground v.1.15,2013-02-13 10:18:00,
2013-02-13 04:22:00,20.7,19.0,29.82,WSW,251,2.0,3.0,93,0.00,,,0.00,Wunderground v.1.15,2013-02-13 10:22:00,
2013-02-13 04:23:00,20.7,19.0,29.82,WSW,251,2.0,3.0,93,0.00,,,0.00,Wunderground v.1.15,2013-02-13 10:23:00,
2013-02-13 04:24:00,20.7,19.0,29.82,WSW,241,2.0,3.0,93,0.00,,,0.00,Wunderground v.1.15,2013-02-13 10:24:00,
2013-02-13 04:25:00,20.7,19.0,29.82,WSW,241,2.0,3.0,93,0.00,,,0.00,Wunderground v.1.15,2013-02-13 10:25:00,
2013-02-13 04:27:00,20.7,19.0,29.81,WSW,241,3.0,7.0,93,0.00,,,0.00,Wunderground v.1.15,2013-02-13 10:27:00,
2013-02-13 04:28:00,20.7,19.0,29.81,WSW,241,3.0,7.0,93,0.00,,,0.00,Wunderground v.1.15,2013-02-13 10:28:00,
2013-02-13 04:33:00,20.7,19.0,29.81,WSW,241,3.0,7.0,93,0.00,,,0.00,Wunderground v.1.15,2013-02-13 10:33:00,
2013-02-13 04:35:00,20.8,19.1,29.81,WSW,241,3.0,7.0,93,0.00,,,0.00,Wunderground v.1.15,2013-02-13 10:35:00,
2013-02-13 04:36:00,20.8,19.1,29.81,WSW,242,3.0,7.0,93,0.00,,,0.00,Wunderground v.1.15,2013-02-13 10:36:00,
2013-02-13 04:38:00,20.9,19.2,29.81,WSW,242,3.0,7.0,93,0.00,,,0.00,Wunderground v.1.15,2013-02-13 10:38:00,
2013-02-13 04:40:00,20.9,19.2,29.81,WSW,242,3.0,7.0,93,0.00,,,0.00,Wunderground v.1.15,2013-02-13 10:40:00,
2013-02-13 04:43:00,20.9,19.2,29.81,WSW,242,3.0,7.0,93,0.00,,,0.00,Wunderground v.1.15,2013-02-13 10:43:00,
2013-02-13 04:44:00,20.9,19.2,29.81,WSW,241,3.0,7.0,93,0.00,,,0.00,Wunderground v.1.15,2013-02-13 10:44:00,
2013-02-13 04:45:00,20.9,19.2,29.81,WSW,242,3.0,7.0,93,0.00,,,0.00,Wunderground v.1.15,2013-02-13 10:45:00,
2013-02-13 04:47:00,20.9,19.2,29.81,WSW,241,3.0,7.0,93,0.00,,,0.00,Wunderground v.1.15,2013-02-13 10:47:00,
2013-02-13 04:50:00,20.8,19.1,29.81,WSW,241,3.0,7.0,93,0.00,,,0.00,Wunderground v.1.15,2013-02-13 10:50:00,
2013-02-13 04:51:00,20.8,19.1,29.81,WSW,241,3.0,7.0,93,0.00,,,0.00,Wunderground v.1.15,2013-02-13 10:51:00,
2013-02-13 04:52:00,20.8,19.1,29.81,WSW,242,2.0,7.0,93,0.00,,,0.00,Wunderground v.1.15,2013-02-13 10:52:00,
2013-02-13 04:56:00,20.7,19.0,29.81,WSW,241,2.0,-999.0,93,-99.99,,,0.00,weatherlink.com 1.10,2013-02-13 10:56:00,
2013-02-13 04:58:00,20.6,18.9,29.81,WSW,241,2.0,4.0,93,0.00,,,0.00,Wunderground v.1.15,2013-02-13 10:58:00,
2013-02-13 05:02:00,20.6,18.9,29.81,WSW,241,2.0,4.0,93,0.00,,,0.00,Wunderground v.1.15,2013-02-13 11:02:00,
2013-02-13 05:03:00,20.6,18.9,29.81,WSW,241,2.0,4.0,93,0.00,,,0.00,Wunderground v.1.15,2013-02-13 11:03:00,
2013-02-13 05:06:00,20.6,18.9,29.81,WSW,241,3.0,3.0,93,0.00,,,0.00,Wunderground v.1.15,2013-02-13 11:06:00,
2013-02-13 05:07:00,20.6,18.9,29.81,WSW,242,3.0,3.0,93,0.00,,,0.00,Wunderground v.1.15,2013-02-13 11:07:00,
2013-02-13 05:12:00,20.6,19.0,29.81,WSW,239,4.0,-999.0,93,-99.99,,,0.00,weatherlink.com 1.10,2013-02-13 11:12:00,
2013-02-13 05:14:00,20.6,18.9,29.81,WSW,239,3.0,5.0,93,0.00,,,0.00,Wunderground v.1.15,2013-02-13 11:14:00,
2013-02-13 05:15:00,20.6,18.9,29.81,WSW,239,3.0,5.0,93,0.00,,,0.00,Wunderground v.1.15,2013-02-13 11:15:00,
2013-02-13 05:16:00,20.6,18.9,29.81,WSW,239,3.0,3.0,93,0.00,,,0.00,Wunderground v.1.15,2013-02-13 11:16:00,
2013-02-13 05:18:00,20.6,18.9,29.81,WSW,239,3.0,3.0,93,0.00,,,0.00,Wunderground v.1.15,2013-02-13 11:18:00,
2013-02-13 05:20:00,20.6,18.9,29.81,WSW,239,3.0,3.0,93,0.00,,,0.00,Wunderground v.1.15,2013-02-13 11:20:00,
2013-02-13 05:23:00,20.5,18.8,29.81,WSW,239,3.0,4.0,93,0.00,,,0.00,Wunderground v.1.15,2013-02-13 11:23:00,
2013-02-13 05:24:00,20.6,18.9,29.81,WSW,239,3.0,4.0,93,0.00,,,0.00,Wunderground v.1.15,2013-02-13 11:24:00,
2013-02-13 05:26:00,20.6,18.9,29.80,WSW,239,3.0,3.0,93,0.00,,,0.00,Wunderground v.1.15,2013-02-13 11:26:00,
2013-02-13 05:30:00,20.6,19.1,29.80,WSW,240,3.0,5.0,94,0.00,,,0.00,Wunderground v.1.15,2013-02-13 11:30:00,
2013-02-13 05:31:00,20.7,19.2,29.80,WSW,240,3.0,5.0,94,0.00,,,0.00,Wunderground v.1.15,2013-02-13 11:31:00,
2013-02-13 05:34:00,20.6,19.1,29.80,WSW,240,3.0,5.0,94,0.00,,,0.00,Wunderground v.1.15,2013-02-13 11:34:00,
2013-02-13 05:37:00,20.7,19.2,29.80,WSW,243,3.0,5.0,94,0.00,,,0.00,Wunderground v.1.15,2013-02-13 11:37:00,
2013-02-13 05:39:00,20.8,19.3,29.80,WSW,243,3.0,5.0,94,0.00,,,0.00,Wunderground v.1.15,2013-02-13 11:39:00,
2013-02-13 05:40:00,20.9,19.4,29.80,WSW,243,3.0,5.0,94,0.00,,,0.00,Wunderground v.1.15,2013-02-13 11:40:00,
2013-02-13 05:42:00,20.8,19.0,29.80,WSW,243,4.0,-999.0,94,-99.99,,,0.00,weatherlink.com 1.10,2013-02-13 11:42:00,
2013-02-13 05:46:00,20.8,19.1,29.80,WSW,243,4.0,4.0,93,0.00,,,0.00,Wunderground v.1.15,2013-02-13 11:46:00,
2013-02-13 05:47:00,20.8,19.1,29.80,WSW,243,4.0,5.0,93,0.00,,,0.00,Wunderground v.1.15,2013-02-13 11:47:00,
2013-02-13 05:50:00,20.6,18.9,29.80,WSW,243,4.0,5.0,93,0.00,,,0.00,Wunderground v.1.15,2013-02-13 11:50:00,
2013-02-13 05:54:00,20.3,18.6,29.81,West,263,4.0,5.0,93,0.00,,,0.00,Wunderground v.1.15,2013-02-13 11:54:00,
2013-02-13 05:55:00,20.2,18.5,29.81,West,263,4.0,5.0,93,0.00,,,0.00,Wunderground v.1.15,2013-02-13 11:55:00,
2013-02-13 05:59:00,19.9,18.0,29.81,West,263,3.0,-999.0,93,-99.99,,,0.00,weatherlink.com 1.10,2013-02-13 11:59:00,
2013-02-13 06:00:00,19.9,18.2,29.80,West,263,3.0,4.0,93,0.00,,,0.00,Wunderground v.1.15,2013-02-13 12:00:00,
2013-02-13 06:01:00,19.9,18.2,29.80,West,263,3.0,4.0,93,0.00,,,0.00,Wunderground v.1.15,2013-02-13 12:01:00,
2013-02-13 06:05:00,19.8,18.1,29.80,West,263,3.0,4.0,93,0.00,,,0.00,Wunderground v.1.15,2013-02-13 12:05:00,
2013-02-13 06:06:00,19.7,18.0,29.80,West,263,3.0,3.0,93,0.00,,,0.00,Wunderground v.1.15,2013-02-13 12:06:00,
2013-02-13 06:07:00,19.7,18.0,29.80,West,263,3.0,3.0,93,0.00,,,0.00,Wunderground v.1.15,2013-02-13 12:07:00,
2013-02-13 06:09:00,19.6,17.9,29.80,West,263,3.0,3.0,93,0.00,,,0.00,Wunderground v.1.15,2013-02-13 12:09:00,
2013-02-13 06:11:00,19.6,17.9,29.80,West,263,3.0,3.0,93,0.00,,,0.00,Wunderground v.1.15,2013-02-13 12:11:00,
2013-02-13 06:13:00,19.6,17.9,29.80,West,263,3.0,4.0,93,0.00,,,0.00,Wunderground v.1.15,2013-02-13 12:13:00,
2013-02-13 06:16:00,19.5,17.8,29.80,West,263,3.0,3.0,93,0.00,,,0.00,Wunderground v.1.15,2013-02-13 12:16:00,
2013-02-13 06:18:00,19.5,17.8,29.80,West,263,3.0,3.0,93,0.00,,,0.00,Wunderground v.1.15,2013-02-13 12:18:00,
2013-02-13 06:20:00,19.5,18.1,29.80,West,263,3.0,3.0,94,0.00,,,0.00,Wunderground v.1.15,2013-02-13 12:20:00,
2013-02-13 06:22:00,19.5,18.1,29.80,West,263,3.0,3.0,94,0.00,,,0.00,Wunderground v.1.15,2013-02-13 12:22:00,
2013-02-13 06:23:00,19.5,18.1,29.80,West,263,3.0,3.0,94,0.00,,,0.00,Wunderground v.1.15,2013-02-13 12:23:00,
2013-02-13 06:25:00,19.5,18.1,29.80,West,263,3.0,3.0,94,0.00,,,0.00,Wunderground v.1.15,2013-02-13 12:25:00,
2013-02-13 06:28:00,19.5,18.1,29.80,West,263,3.0,6.0,94,0.00,,,0.00,Wunderground v.1.15,2013-02-13 12:28:00,
2013-02-13 06:29:00,19.6,18.2,29.80,West,263,3.0,6.0,94,0.00,,,0.00,Wunderground v.1.15,2013-02-13 12:29:00,
2013-02-13 06:31:00,19.7,18.3,29.80,West,263,3.0,6.0,94,0.00,,,0.00,Wunderground v.1.15,2013-02-13 12:31:00,
2013-02-13 06:34:00,19.7,18.3,29.80,West,263,3.0,6.0,94,0.00,,,0.00,Wunderground v.1.15,2013-02-13 12:34:00,
2013-02-13 06:35:00,19.8,18.4,29.80,West,263,3.0,6.0,94,0.00,,,0.00,Wunderground v.1.15,2013-02-13 12:35:00,
2013-02-13 06:37:00,19.8,18.4,29.80,West,263,3.0,6.0,94,0.00,,,0.00,Wunderground v.1.15,2013-02-13 12:37:00,
2013-02-13 06:41:00,19.9,18.5,29.80,West,259,3.0,6.0,94,0.00,,,0.00,Wunderground v.1.15,2013-02-13 12:41:00,
2013-02-13 06:42:00,19.9,18.5,29.80,WSW,257,3.0,6.0,94,0.00,,,0.00,Wunderground v.1.15,2013-02-13 12:42:00,
2013-02-13 06:47:00,20.0,18.6,29.80,WSW,257,4.0,6.0,94,0.00,,,0.00,Wunderground v.1.15,2013-02-13 12:47:00,
2013-02-13 06:48:00,20.1,18.7,29.80,WSW,257,4.0,6.0,94,0.00,,,0.00,Wunderground v.1.15,2013-02-13 12:48:00,
2013-02-13 06:52:00,20.2,18.8,29.80,West,269,4.0,6.0,94,0.00,,,0.00,Wunderground v.1.15,2013-02-13 12:52:00,
2013-02-13 06:53:00,20.2,18.8,29.80,West,269,3.0,6.0,94,0.00,,,0.00,Wunderground v.1.15,2013-02-13 12:53:00,
2013-02-13 06:58:00,20.4,19.0,29.80,West,270,3.0,-999.0,94,-99.99,,,0.00,weatherlink.com 1.10,2013-02-13 12:58:00,
2013-02-13 07:01:00,20.4,18.9,29.80,West,271,3.0,4.0,94,0.00,,,0.00,Wunderground v.1.15,2013-02-13 13:01:00,
2013-02-13 07:03:00,20.4,18.9,29.80,West,271,3.0,4.0,94,0.00,,,0.00,Wunderground v.1.15,2013-02-13 13:03:00,
2013-02-13 07:04:00,20.4,18.9,29.80,West,271,3.0,4.0,94,0.00,,,0.00,Wunderground v.1.15,2013-02-13 13:04:00,
2013-02-13 07:07:00,20.5,19.0,29.80,West,271,3.0,4.0,94,0.00,,,0.00,Wunderground v.1.15,2013-02-13 13:07:00,
2013-02-13 07:10:00,20.5,19.0,29.80,West,271,3.0,4.0,94,0.00,,,0.00,Wunderground v.1.15,2013-02-13 13:10:00,
2013-02-13 07:12:00,20.6,19.1,29.80,West,271,3.0,5.0,94,0.00,,,0.00,Wunderground v.1.15,2013-02-13 13:12:00,
2013-02-13 07:15:00,20.6,19.1,29.80,West,271,3.0,5.0,94,0.00,,,0.00,Wunderground v.1.15,2013-02-13 13:15:00,
2013-02-13 07:17:00,20.5,19.0,29.80,West,271,3.0,3.0,94,0.00,,,0.00,Wunderground v.1.15,2013-02-13 13:17:00,
2013-02-13 07:20:00,20.6,19.1,29.80,West,271,3.0,4.0,94,0.00,,,0.00,Wunderground v.1.15,2013-02-13 13:20:00,
2013-02-13 07:23:00,20.7,19.2,29.80,West,271,3.0,5.0,94,0.00,,,0.00,Wunderground v.1.15,2013-02-13 13:23:00,
2013-02-13 07:24:00,20.7,19.2,29.80,West,271,3.0,5.0,94,0.00,,,0.00,Wunderground v.1.15,2013-02-13 13:24:00,
2013-02-13 07:27:00,20.8,19.3,29.80,West,271,3.0,5.0,94,0.00,,,0.00,Wunderground v.1.15,2013-02-13 13:27:00,
2013-02-13 07:28:00,20.9,19.4,29.80,West,271,3.0,5.0,94,0.00,,,0.00,Wunderground v.1.15,2013-02-13 13:28:00,
2013-02-13 07:29:00,20.9,19.4,29.80,West,271,3.0,5.0,94,0.00,,,0.00,Wunderground v.1.15,2013-02-13 13:29:00,
2013-02-13 07:31:00,21.1,19.6,29.80,West,271,3.0,5.0,94,0.00,,,0.00,Wunderground v.1.15,2013-02-13 13:31:00,
2013-02-13 07:34:00,21.2,19.7,29.80,West,271,3.0,5.0,94,0.00,,,0.00,Wunderground v.1.15,2013-02-13 13:34:00,
2013-02-13 07:36:00,21.3,19.8,29.80,West,271,3.0,3.0,94,0.00,,,0.00,Wunderground v.1.15,2013-02-13 13:36:00,
2013-02-13 07:38:00,21.4,19.9,29.80,West,271,3.0,5.0,94,0.00,,,0.00,Wunderground v.1.15,2013-02-13 13:38:00,
2013-02-13 07:40:00,21.4,19.9,29.80,West,271,2.0,5.0,94,0.00,,,0.00,Wunderground v.1.15,2013-02-13 13:40:00,
2013-02-13 07:44:00,21.4,19.9,29.80,West,271,2.0,5.0,94,0.00,,,0.00,Wunderground v.1.15,2013-02-13 13:44:00,
2013-02-13 07:45:00,21.5,20.0,29.80,West,271,2.0,5.0,94,0.00,,,0.00,Wunderground v.1.15,2013-02-13 13:45:00,
2013-02-13 07:46:00,21.5,20.0,29.80,West,271,2.0,5.0,94,0.00,,,0.00,Wunderground v.1.15,2013-02-13 13:46:00,
2013-02-13 07:50:00,21.6,20.1,29.79,West,271,2.0,5.0,94,0.00,,,0.00,Wunderground v.1.15,2013-02-13 13:50:00,
2013-02-13 07:51:00,21.6,20.1,29.79,West,271,2.0,5.0,94,0.00,,,0.00,Wunderground v.1.15,2013-02-13 13:51:00,
2013-02-13 07:53:00,21.6,20.1,29.79,West,271,2.0,5.0,94,0.00,,,0.00,Wunderground v.1.15,2013-02-13 13:53:00,
2013-02-13 07:54:00,21.7,20.2,29.79,West,271,2.0,5.0,94,0.00,,,0.00,Wunderground v.1.15,2013-02-13 13:54:00,
2013-02-13 07:57:00,21.7,20.2,29.79,West,271,2.0,4.0,94,0.00,,,0.00,Wunderground v.1.15,2013-02-13 13:57:00,
2013-02-13 08:00:00,21.9,20.4,29.79,West,271,2.0,4.0,94,0.00,,,0.00,Wunderground v.1.15,2013-02-13 14:00:00,
2013-02-13 08:01:00,22.0,20.5,29.79,West,271,3.0,4.0,94,0.00,,,0.00,Wunderground v.1.15,2013-02-13 14:01:00,
2013-02-13 08:02:00,22.1,20.6,29.79,West,271,3.0,4.0,94,0.00,,,0.00,Wunderground v.1.15,2013-02-13 14:02:00,
2013-02-13 08:03:00,22.2,20.7,29.79,West,271,3.0,4.0,94,0.00,,,0.00,Wunderground v.1.15,2013-02-13 14:03:00,
2013-02-13 08:07:00,22.7,21.2,29.78,West,271,2.0,2.0,94,0.00,,,0.00,Wunderground v.1.15,2013-02-13 14:07:00,
2013-02-13 08:08:00,22.8,21.3,29.78,West,271,2.0,3.0,94,0.00,,,0.00,Wunderground v.1.15,2013-02-13 14:08:00,
2013-02-13 08:12:00,23.1,21.6,29.78,West,271,2.0,3.0,94,0.00,,,0.00,Wunderground v.1.15,2013-02-13 14:12:00,
2013-02-13 08:14:00,23.1,22.0,29.79,West,271,2.0,-999.0,94,-99.99,,,0.00,weatherlink.com 1.10,2013-02-13 14:14:00,
2013-02-13 08:15:00,23.2,21.7,29.79,West,271,2.0,4.0,94,0.00,,,0.00,Wunderground v.1.15,2013-02-13 14:15:00,
2013-02-13 08:17:00,23.2,21.7,29.79,West,271,2.0,3.0,94,0.00,,,0.00,Wunderground v.1.15,2013-02-13 14:17:00,
2013-02-13 08:20:00,23.2,21.7,29.79,West,271,2.0,3.0,94,0.00,,,0.00,Wunderground v.1.15,2013-02-13 14:20:00,
2013-02-13 08:21:00,23.2,21.5,29.79,West,271,3.0,3.0,93,0.00,,,0.00,Wunderground v.1.15,2013-02-13 14:21:00,
2013-02-13 08:23:00,23.2,21.7,29.79,West,271,3.0,3.0,94,0.00,,,0.00,Wunderground v.1.15,2013-02-13 14:23:00,
2013-02-13 08:27:00,23.4,22.0,29.79,West,271,1.0,-999.0,94,-99.99,,,0.00,weatherlink.com 1.10,2013-02-13 14:27:00,
2013-02-13 08:28:00,23.4,21.7,29.79,West,271,2.0,5.0,93,0.00,,,0.00,Wunderground v.1.15,2013-02-13 14:28:00,
2013-02-13 08:30:00,23.4,21.9,29.79,West,271,2.0,5.0,94,0.00,,,0.00,Wunderground v.1.15,2013-02-13 14:30:00,
2013-02-13 08:33:00,23.4,21.7,29.79,West,271,3.0,5.0,93,0.00,,,0.00,Wunderground v.1.15,2013-02-13 14:33:00,
2013-02-13 08:35:00,23.4,21.7,29.79,West,271,3.0,5.0,93,0.00,,,0.00,Wunderground v.1.15,2013-02-13 14:35:00,
2013-02-13 08:36:00,23.4,21.7,29.79,West,271,3.0,5.0,93,0.00,,,0.00,Wunderground v.1.15,2013-02-13 14:36:00,
2013-02-13 08:41:00,23.5,21.8,29.78,West,271,3.0,5.0,93,0.00,,,0.00,Wunderground v.1.15,2013-02-13 14:41:00,
2013-02-13 08:43:00,23.5,22.0,29.78,West,271,2.0,-999.0,93,-99.99,,,0.00,weatherlink.com 1.10,2013-02-13 14:43:00,
2013-02-13 08:44:00,23.6,21.9,29.78,West,271,2.0,5.0,93,0.00,,,0.00,Wunderground v.1.15,2013-02-13 14:44:00,
2013-02-13 08:47:00,23.7,22.0,29.78,West,271,2.0,5.0,93,0.00,,,0.00,Wunderground v.1.15,2013-02-13 14:47:00,
2013-02-13 08:49:00,23.8,22.1,29.79,West,271,3.0,5.0,93,0.00,,,0.00,Wunderground v.1.15,2013-02-13 14:49:00,
2013-02-13 08:50:00,23.9,22.2,29.78,West,271,3.0,5.0,93,0.00,,,0.00,Wunderground v.1.15,2013-02-13 14:50:00,
2013-02-13 08:51:00,24.0,22.3,29.78,West,271,3.0,5.0,93,0.00,,,0.00,Wunderground v.1.15,2013-02-13 14:51:00,
2013-02-13 08:57:00,24.2,22.5,29.78,West,271,3.0,3.0,93,0.00,,,0.00,Wunderground v.1.15,2013-02-13 14:57:00,
2013-02-13 08:58:00,24.2,22.5,29.78,West,271,3.0,3.0,93,0.00,,,0.00,Wunderground v.1.15,2013-02-13 14:58:00,
2013-02-13 08:59:00,24.3,23.0,29.78,West,271,2.0,-999.0,93,-99.99,,,0.00,weatherlink.com 1.10,2013-02-13 14:59:00,
2013-02-13 09:01:00,24.5,22.8,29.79,West,271,3.0,3.0,93,0.00,,,0.00,Wunderground v.1.15,2013-02-13 15:01:00,
2013-02-13 09:04:00,24.6,22.6,29.79,West,271,3.0,6.0,92,0.00,,,0.00,Wunderground v.1.15,2013-02-13 15:04:00,
2013-02-13 09:05:00,24.6,22.6,29.79,West,271,3.0,6.0,92,0.00,,,0.00,Wunderground v.1.15,2013-02-13 15:05:00,
2013-02-13 09:06:00,24.7,22.7,29.78,WNW,290,3.0,3.0,92,0.00,,,0.00,Wunderground v.1.15,2013-02-13 15:06:00,
2013-02-13 09:07:00,24.7,22.7,29.78,WNW,284,3.0,3.0,92,0.00,,,0.00,Wunderground v.1.15,2013-02-13 15:07:00,
2013-02-13 09:10:00,24.9,22.9,29.78,WSW,253,3.0,4.0,92,0.00,,,0.00,Wunderground v.1.15,2013-02-13 15:10:00,
2013-02-13 09:11:00,25.0,23.0,29.78,WSW,254,3.0,4.0,92,0.00,,,0.00,Wunderground v.1.15,2013-02-13 15:11:00,
2013-02-13 09:13:00,25.1,23.1,29.78,WSW,256,3.0,4.0,92,0.00,,,0.00,Wunderground v.1.15,2013-02-13 15:13:00,
2013-02-13 09:17:00,25.4,23.1,29.78,West,266,3.0,4.0,91,0.00,,,0.00,Wunderground v.1.15,2013-02-13 15:17:00,
2013-02-13 09:19:00,25.5,23.2,29.78,West,273,3.0,7.0,91,0.00,,,0.00,Wunderground v.1.15,2013-02-13 15:19:00,
2013-02-13 09:21:00,25.6,23.3,29.78,SW,232,3.0,7.0,91,0.00,,,0.00,Wunderground v.1.15,2013-02-13 15:21:00,
2013-02-13 09:23:00,25.7,23.2,29.78,West,270,3.0,7.0,90,0.00,,,0.00,Wunderground v.1.15,2013-02-13 15:23:00,
2013-02-13 09:24:00,25.7,23.4,29.78,West,270,3.0,7.0,91,0.00,,,0.00,Wunderground v.1.15,2013-02-13 15:24:00,
2013-02-13 09:25:00,25.8,23.5,29.78,NW,306,3.0,7.0,91,0.00,,,0.00,Wunderground v.1.15,2013-02-13 15:25:00,
2013-02-13 09:27:00,25.8,23.3,29.78,West,268,3.0,6.0,90,0.00,,,0.00,Wunderground v.1.15,2013-02-13 15:27:00,
2013-02-13 09:31:00,26.1,23.6,29.78,West,259,3.0,6.0,90,0.00,,,0.00,Wunderground v.1.15,2013-02-13 15:31:00,
2013-02-13 09:32:00,26.1,23.6,29.78,West,277,3.0,6.0,90,0.00,,,0.00,Wunderground v.1.15,2013-02-13 15:32:00,
2013-02-13 09:35:00,26.3,23.5,29.78,West,281,3.0,6.0,89,0.00,,,0.00,Wunderground v.1.15,2013-02-13 15:35:00,
2013-02-13 09:36:00,26.4,23.9,29.78,West,281,3.0,3.0,90,0.00,,,0.00,Wunderground v.1.15,2013-02-13 15:36:00,
2013-02-13 09:38:00,26.6,23.8,29.78,West,266,3.0,6.0,89,0.00,,,0.00,Wunderground v.1.15,2013-02-13 15:38:00,
2013-02-13 09:42:00,26.8,23.7,29.78,WSW,256,3.0,6.0,88,0.00,,,0.00,Wunderground v.1.15,2013-02-13 15:42:00,
2013-02-13 09:43:00,26.9,24.0,29.78,West,271,4.0,-999.0,88,-99.99,,,0.00,weatherlink.com 1.10,2013-02-13 15:43:00,
2013-02-13 09:45:00,26.9,23.8,29.78,West,277,4.0,6.0,88,0.00,,,0.00,Wunderground v.1.15,2013-02-13 15:45:00,
2013-02-13 09:47:00,27.0,23.9,29.78,WNW,283,4.0,6.0,88,0.00,,,0.00,Wunderground v.1.15,2013-02-13 15:47:00,
2013-02-13 09:48:00,27.0,23.9,29.78,WSW,257,4.0,6.0,88,0.00,,,0.00,Wunderground v.1.15,2013-02-13 15:48:00,
2013-02-13 09:51:00,27.2,24.1,29.78,West,273,4.0,6.0,88,0.00,,,0.00,Wunderground v.1.15,2013-02-13 15:51:00,
2013-02-13 09:54:00,27.4,24.0,29.78,West,278,3.0,6.0,87,0.00,,,0.00,Wunderground v.1.15,2013-02-13 15:54:00,
2013-02-13 09:55:00,27.4,24.0,29.78,NW,304,3.0,6.0,87,0.00,,,0.00,Wunderground v.1.15,2013-02-13 15:55:00,
2013-02-13 09:58:00,27.5,24.0,29.78,WSW,250,2.0,-999.0,87,-99.99,,,0.00,weatherlink.com 1.10,2013-02-13 15:58:00,
2013-02-13 10:01:00,27.8,24.2,29.78,WSW,250,3.0,4.0,86,0.00,,,0.00,Wunderground v.1.15,2013-02-13 16:01:00,
2013-02-13 10:03:00,27.8,24.2,29.78,WSW,242,3.0,4.0,86,0.00,,,0.00,Wunderground v.1.15,2013-02-13 16:03:00,
2013-02-13 10:04:00,27.9,24.3,29.78,WSW,242,3.0,4.0,86,0.00,,,0.00,Wunderground v.1.15,2013-02-13 16:04:00,
2013-02-13 10:06:00,27.9,24.3,29.78,WSW,244,3.0,4.0,86,0.00,,,0.00,Wunderground v.1.15,2013-02-13 16:06:00,
2013-02-13 10:07:00,27.9,24.3,29.77,WSW,244,3.0,4.0,86,0.00,,,0.00,Wunderground v.1.15,2013-02-13 16:07:00,
2013-02-13 10:10:00,28.0,24.4,29.78,WSW,253,3.0,5.0,86,0.00,,,0.00,Wunderground v.1.15,2013-02-13 16:10:00,
2013-02-13 10:11:00,28.0,24.4,29.77,WSW,253,3.0,5.0,86,0.00,,,0.00,Wunderground v.1.15,2013-02-13 16:11:00,
2013-02-13 10:14:00,28.3,24.0,29.77,West,266,4.0,-999.0,85,-99.99,,,0.00,weatherlink.com 1.10,2013-02-13 16:14:00,
2013-02-13 10:15:00,28.3,24.4,29.77,West,260,3.0,5.0,85,0.00,,,0.00,Wunderground v.1.15,2013-02-13 16:15:00,
2013-02-13 10:17:00,28.2,24.3,29.77,WSW,257,3.0,4.0,85,0.00,,,0.00,Wunderground v.1.15,2013-02-13 16:17:00,
2013-02-13 10:20:00,28.3,24.1,29.77,WSW,246,3.0,5.0,84,0.00,,,0.00,Wunderground v.1.15,2013-02-13 16:20:00,
2013-02-13 10:23:00,28.3,24.1,29.77,West,269,4.0,5.0,84,0.00,,,0.00,Wunderground v.1.15,2013-02-13 16:23:00,
2013-02-13 10:26:00,28.4,24.2,29.77,WSW,254,4.0,4.0,84,0.00,,,0.00,Wunderground v.1.15,2013-02-13 16:26:00,
2013-02-13 10:29:00,28.5,24.0,29.77,WNW,287,3.0,-999.0,84,-99.99,,,0.00,weatherlink.com 1.10,2013-02-13 16:29:00,
2013-02-13 10:30:00,28.6,24.4,29.77,WNW,286,4.0,8.0,84,0.00,,,0.00,Wunderground v.1.15,2013-02-13 16:30:00,
2013-02-13 10:33:00,28.8,24.6,29.77,WNW,286,3.0,8.0,84,0.00,,,0.00,Wunderground v.1.15,2013-02-13 16:33:00,
2013-02-13 10:34:00,28.8,24.6,29.77,West,277,3.0,8.0,84,0.00,,,0.00,Wunderground v.1.15,2013-02-13 16:34:00,
2013-02-13 10:36:00,28.8,24.6,29.77,West,259,3.0,8.0,84,0.00,,,0.00,Wunderground v.1.15,2013-02-13 16:36:00,
2013-02-13 10:40:00,28.9,24.7,29.77,WSW,248,3.0,8.0,84,0.00,,,0.00,Wunderground v.1.15,2013-02-13 16:40:00,
2013-02-13 10:41:00,28.9,24.7,29.77,WSW,248,3.0,8.0,84,0.00,,,0.00,Wunderground v.1.15,2013-02-13 16:41:00,
2013-02-13 10:43:00,29.2,25.0,29.77,WSW,248,4.0,-999.0,84,-99.99,,,0.00,weatherlink.com 1.10,2013-02-13 16:43:00,
2013-02-13 10:46:00,29.5,25.0,29.77,WSW,253,2.0,8.0,83,0.00,,,0.00,Wunderground v.1.15,2013-02-13 16:46:00,
2013-02-13 10:48:00,29.6,24.8,29.77,WSW,251,2.0,8.0,82,0.00,,,0.00,Wunderground v.1.15,2013-02-13 16:48:00,
2013-02-13 10:49:00,29.6,24.8,29.77,WSW,249,3.0,8.0,82,0.00,,,0.00,Wunderground v.1.15,2013-02-13 16:49:00,
2013-02-13 10:50:00,29.6,24.8,29.77,WSW,246,3.0,8.0,82,0.00,,,0.00,Wunderground v.1.15,2013-02-13 16:50:00,
2013-02-13 10:54:00,29.7,24.6,29.77,West,277,4.0,8.0,81,0.00,,,0.00,Wunderground v.1.15,2013-02-13 16:54:00,
2013-02-13 10:55:00,29.8,25.0,29.77,West,263,4.0,8.0,82,0.00,,,0.00,Wunderground v.1.15,2013-02-13 16:55:00,
2013-02-13 10:56:00,29.8,25.0,29.77,WSW,257,4.0,4.0,82,0.00,,,0.00,Wunderground v.1.15,2013-02-13 16:56:00,
2013-02-13 10:57:00,29.8,24.7,29.77,WSW,246,4.0,4.0,81,0.00,,,0.00,Wunderground v.1.15,2013-02-13 16:57:00,
2013-02-13 11:02:00,30.1,24.7,29.77,WSW,252,4.0,6.0,80,0.00,,,0.00,Wunderground v.1.15,2013-02-13 17:02:00,
2013-02-13 11:03:00,30.0,24.6,29.77,WSW,247,4.0,6.0,80,0.00,,,0.00,Wunderground v.1.15,2013-02-13 17:03:00,
2013-02-13 11:06:00,30.2,25.1,29.77,WSW,254,4.0,4.0,81,0.00,,,0.00,Wunderground v.1.15,2013-02-13 17:06:00,
2013-02-13 11:07:00,30.4,25.3,29.77,SW,236,4.0,4.0,81,0.00,,,0.00,Wunderground v.1.15,2013-02-13 17:07:00,
2013-02-13 11:10:00,30.7,25.3,29.77,WSW,246,4.0,5.0,80,0.00,,,0.00,Wunderground v.1.15,2013-02-13 17:10:00,
2013-02-13 11:12:00,30.7,25.3,29.77,WSW,249,4.0,5.0,80,0.00,,,0.00,Wunderground v.1.15,2013-02-13 17:12:00,
2013-02-13 11:15:00,30.7,25.0,29.76,WSW,257,4.0,5.0,79,0.00,,,0.00,Wunderground v.1.15,2013-02-13 17:15:00,
2013-02-13 11:16:00,30.7,25.0,29.76,WSW,255,4.0,4.0,79,0.00,,,0.00,Wunderground v.1.15,2013-02-13 17:16:00,
2013-02-13 11:18:00,30.8,25.1,29.76,WSW,243,4.0,4.0,79,0.00,,,0.00,Wunderground v.1.15,2013-02-13 17:18:00,
2013-02-13 11:19:00,30.8,25.1,29.76,WSW,244,3.0,4.0,79,0.00,,,0.00,Wunderground v.1.15,2013-02-13 17:19:00,
2013-02-13 11:20:00,31.0,25.2,29.76,WSW,246,3.0,5.0,79,0.00,,,0.00,Wunderground v.1.15,2013-02-13 17:20:00,
2013-02-13 11:23:00,31.3,25.5,29.76,WSW,246,3.0,5.0,79,0.00,,,0.00,Wunderground v.1.15,2013-02-13 17:23:00,
2013-02-13 11:24:00,31.4,25.3,29.76,WSW,251,3.0,5.0,78,0.00,,,0.00,Wunderground v.1.15,2013-02-13 17:24:00,
2013-02-13 11:26:00,31.4,25.3,29.76,SW,236,3.0,3.0,78,0.00,,,0.00,Wunderground v.1.15,2013-02-13 17:26:00,
2013-02-13 11:27:00,31.5,25.4,29.76,SW,236,3.0,8.0,78,0.00,,,0.00,Wunderground v.1.15,2013-02-13 17:27:00,
2013-02-13 11:30:00,31.9,25.8,29.76,WSW,238,3.0,8.0,78,0.00,,,0.00,Wunderground v.1.15,2013-02-13 17:30:00,
2013-02-13 11:31:00,32.0,25.9,29.76,WSW,239,3.0,8.0,78,0.00,,,0.00,Wunderground v.1.15,2013-02-13 17:31:00,
2013-02-13 11:36:00,32.3,25.9,29.76,West,270,2.0,8.0,77,0.00,,,0.00,Wunderground v.1.15,2013-02-13 17:36:00,
2013-02-13 11:39:00,32.1,25.1,29.76,West,264,3.0,8.0,75,0.00,,,0.00,Wunderground v.1.15,2013-02-13 17:39:00,
2013-02-13 11:41:00,32.1,25.4,29.76,West,263,3.0,8.0,76,0.00,,,0.00,Wunderground v.1.15,2013-02-13 17:41:00,
2013-02-13 11:44:00,32.2,25.5,29.76,WSW,239,4.0,8.0,76,0.00,,,0.00,Wunderground v.1.15,2013-02-13 17:44:00,
2013-02-13 11:45:00,32.3,25.6,29.76,WSW,239,4.0,8.0,76,0.00,,,0.00,Wunderground v.1.15,2013-02-13 17:45:00,
2013-02-13 11:47:00,32.3,25.3,29.76,WSW,250,4.0,8.0,75,0.00,,,0.00,Wunderground v.1.15,2013-02-13 17:47:00,
2013-02-13 11:51:00,32.4,25.7,29.75,WSW,246,3.0,8.0,76,0.00,,,0.00,Wunderground v.1.15,2013-02-13 17:51:00,
2013-02-13 11:53:00,32.6,25.9,29.75,WSW,246,3.0,8.0,76,0.00,,,0.00,Wunderground v.1.15,2013-02-13 17:53:00,
2013-02-13 11:54:00,32.6,25.6,29.75,WSW,246,2.0,8.0,75,0.00,,,0.00,Wunderground v.1.15,2013-02-13 17:54:00,
2013-02-13 11:55:00,32.7,25.6,29.75,WSW,246,2.0,8.0,75,0.00,,,0.00,Wunderground v.1.15,2013-02-13 17:55:00,
2013-02-13 11:58:00,33.0,26.3,29.75,WSW,242,2.0,3.0,76,0.00,,,0.00,Wunderground v.1.15,2013-02-13 17:58:00,
2013-02-13 11:59:00,33.1,26.0,29.75,WSW,246,2.0,4.0,75,0.00,,,0.00,Wunderground v.1.15,2013-02-13 17:59:00,
2013-02-13 12:00:00,33.1,26.0,29.75,WSW,246,3.0,-999.0,75,-99.99,,,0.00,weatherlink.com 1.10,2013-02-13 18:00:00,
2013-02-13 12:04:00,33.3,25.9,29.75,SW,234,2.0,4.0,74,0.00,,,0.00,Wunderground v.1.15,2013-02-13 18:04:00,
2013-02-13 12:05:00,33.3,25.9,29.75,SW,234,2.0,4.0,74,0.00,,,0.00,Wunderground v.1.15,2013-02-13 18:05:00,
2013-02-13 12:07:00,33.4,26.3,29.75,SW,234,2.0,2.0,75,0.00,,,0.00,Wunderground v.1.15,2013-02-13 18:07:00,
2013-02-13 12:08:00,33.5,26.4,29.75,SW,232,2.0,3.0,75,0.00,,,0.00,Wunderground v.1.15,2013-02-13 18:08:00,
2013-02-13 12:10:00,33.6,26.2,29.75,SW,232,2.0,3.0,74,0.00,,,0.00,Wunderground v.1.15,2013-02-13 18:10:00,
2013-02-13 12:14:00,33.8,26.0,29.75,WSW,242,3.0,-999.0,74,-99.99,,,0.00,weatherlink.com 1.10,2013-02-13 18:14:00,
2013-02-13 12:17:00,33.8,26.1,29.74,SSW,205,2.0,3.0,73,0.00,,,0.00,Wunderground v.1.15,2013-02-13 18:17:00,
2013-02-13 12:20:00,33.9,26.2,29.74,WSW,244,2.0,3.0,73,0.00,,,0.00,Wunderground v.1.15,2013-02-13 18:20:00,
2013-02-13 12:23:00,33.9,26.2,29.74,WSW,242,2.0,4.0,73,0.00,,,0.00,Wunderground v.1.15,2013-02-13 18:23:00,
2013-02-13 12:25:00,33.9,26.2,29.74,WSW,242,2.0,4.0,73,0.00,,,0.00,Wunderground v.1.15,2013-02-13 18:25:00,
2013-02-13 12:27:00,34.0,26.3,29.74,WSW,252,2.0,7.0,73,0.00,,,0.00,Wunderground v.1.15,2013-02-13 18:27:00,
2013-02-13 12:28:00,33.9,26.2,29.74,WSW,252,3.0,7.0,73,0.00,,,0.00,Wunderground v.1.15,2013-02-13 18:28:00,
2013-02-13 12:30:00,34.0,26.6,29.74,WSW,254,3.0,7.0,74,0.00,,,0.00,Wunderground v.1.15,2013-02-13 18:30:00,
2013-02-13 12:32:00,34.1,26.3,29.74,West,264,3.0,7.0,73,0.00,,,0.00,Wunderground v.1.15,2013-02-13 18:32:00,
2013-02-13 12:33:00,34.1,26.3,29.74,WSW,257,3.0,7.0,73,0.00,,,0.00,Wunderground v.1.15,2013-02-13 18:33:00,
2013-02-13 12:34:00,34.2,26.1,29.74,WSW,239,3.0,7.0,72,0.00,,,0.00,Wunderground v.1.15,2013-02-13 18:34:00,
2013-02-13 12:38:00,34.5,26.4,29.74,SW,236,3.0,7.0,72,0.00,,,0.00,Wunderground v.1.15,2013-02-13 18:38:00,
2013-02-13 12:39:00,34.6,26.5,29.74,SW,236,3.0,7.0,72,0.00,,,0.00,Wunderground v.1.15,2013-02-13 18:39:00,
2013-02-13 12:40:00,34.7,26.9,29.74,SW,229,3.0,7.0,73,0.00,,,0.00,Wunderground v.1.15,2013-02-13 18:40:00,
2013-02-13 12:41:00,34.8,27.0,29.74,WSW,247,3.0,7.0,73,0.00,,,0.00,Wunderground v.1.15,2013-02-13 18:41:00,
2013-02-13 12:44:00,34.9,26.0,29.74,WSW,253,6.0,-999.0,71,-99.99,,,0.00,weatherlink.com 1.10,2013-02-13 18:44:00,
2013-02-13 12:47:00,34.6,26.2,29.74,WSW,241,3.0,7.0,71,0.00,,,0.00,Wunderground v.1.15,2013-02-13 18:47:00,
2013-02-13 12:52:00,34.9,26.4,29.74,SW,236,4.0,7.0,71,0.00,,,0.00,Wunderground v.1.15,2013-02-13 18:52:00,
2013-02-13 12:53:00,35.0,26.5,29.74,SW,236,4.0,7.0,71,0.00,,,0.00,Wunderground v.1.15,2013-02-13 18:53:00,
2013-02-13 12:56:00,35.2,26.7,29.74,WSW,244,3.0,5.0,71,0.00,,,0.00,Wunderground v.1.15,2013-02-13 18:56:00,
2013-02-13 12:58:00,35.3,26.5,29.74,West,263,3.0,5.0,70,0.00,,,0.00,Wunderground v.1.15,2013-02-13 18:58:00,
2013-02-13 12:59:00,35.3,26.0,29.74,WSW,247,5.0,-999.0,70,-99.99,,,0.00,weatherlink.com 1.10,2013-02-13 18:59:00,
2013-02-13 13:02:00,35.5,27.0,29.73,WSW,240,4.0,5.0,71,0.00,,,0.00,Wunderground v.1.15,2013-02-13 19:02:00,
2013-02-13 13:03:00,35.6,26.8,29.74,SW,219,4.0,5.0,70,0.00,,,0.00,Wunderground v.1.15,2013-02-13 19:03:00,
2013-02-13 13:04:00,35.7,27.2,29.73,SW,234,3.0,5.0,71,0.00,,,0.00,Wunderground v.1.15,2013-02-13 19:04:00,
2013-02-13 13:09:00,36.3,27.1,29.73,SW,221,2.0,4.0,69,0.00,,,0.00,Wunderground v.1.15,2013-02-13 19:09:00,
2013-02-13 13:10:00,36.4,27.5,29.73,SW,233,2.0,4.0,70,0.00,,,0.00,Wunderground v.1.15,2013-02-13 19:10:00,
2013-02-13 13:11:00,36.5,27.3,29.73,WSW,251,2.0,4.0,69,0.00,,,0.00,Wunderground v.1.15,2013-02-13 19:11:00,
2013-02-13 13:15:00,36.8,27.2,29.73,WSW,253,3.0,4.0,68,0.00,,,0.00,Wunderground v.1.15,2013-02-13 19:15:00,
2013-02-13 13:16:00,36.7,27.1,29.73,WSW,254,3.0,3.0,68,0.00,,,0.00,Wunderground v.1.15,2013-02-13 19:16:00,
2013-02-13 13:18:00,36.7,27.1,29.73,WSW,257,3.0,6.0,68,0.00,,,0.00,Wunderground v.1.15,2013-02-13 19:18:00,
2013-02-13 13:23:00,36.6,26.7,29.73,West,261,4.0,6.0,67,0.00,,,0.00,Wunderground v.1.15,2013-02-13 19:23:00,
2013-02-13 13:24:00,36.6,27.0,29.73,WSW,251,4.0,6.0,68,0.00,,,0.00,Wunderground v.1.15,2013-02-13 19:24:00,
2013-02-13 13:25:00,36.7,27.1,29.73,WSW,242,4.0,6.0,68,0.00,,,0.00,Wunderground v.1.15,2013-02-13 19:25:00,
2013-02-13 13:28:00,37.1,27.5,29.74,WSW,240,4.0,7.0,68,0.00,,,0.00,Wunderground v.1.15,2013-02-13 19:28:00,
2013-02-13 13:29:00,37.2,27.6,29.74,SW,230,4.0,7.0,68,0.00,,,0.00,Wunderground v.1.15,2013-02-13 19:29:00,
2013-02-13 13:30:00,37.4,28.0,29.73,WSW,254,2.0,-999.0,69,-99.99,,,0.00,weatherlink.com 1.10,2013-02-13 19:30:00,
2013-02-13 13:34:00,38.1,27.7,29.73,WSW,240,3.0,7.0,66,0.00,,,0.00,Wunderground v.1.15,2013-02-13 19:34:00,
2013-02-13 13:35:00,38.1,27.4,29.73,WSW,246,3.0,7.0,65,0.00,,,0.00,Wunderground v.1.15,2013-02-13 19:35:00,
2013-02-13 13:38:00,38.3,27.6,29.73,WSW,258,3.0,7.0,65,0.00,,,0.00,Wunderground v.1.15,2013-02-13 19:38:00,
2013-02-13 13:39:00,38.3,27.6,29.74,WSW,249,3.0,7.0,65,0.00,,,0.00,Wunderground v.1.15,2013-02-13 19:39:00,
2013-02-13 13:40:00,38.3,27.6,29.74,WSW,250,3.0,7.0,65,0.00,,,0.00,Wunderground v.1.15,2013-02-13 19:40:00,
2013-02-13 13:43:00,38.3,27.6,29.73,WNW,288,3.0,7.0,65,0.00,,,0.00,Wunderground v.1.15,2013-02-13 19:43:00,
2013-02-13 13:44:00,38.3,27.6,29.73,WSW,237,3.0,7.0,65,0.00,,,0.00,Wunderground v.1.15,2013-02-13 19:44:00,
2013-02-13 13:47:00,38.5,27.7,29.73,West,263,3.0,6.0,65,0.00,,,0.00,Wunderground v.1.15,2013-02-13 19:47:00,
2013-02-13 13:49:00,38.4,27.3,29.73,WSW,245,4.0,7.0,64,0.00,,,0.00,Wunderground v.1.15,2013-02-13 19:49:00,
2013-02-13 13:52:00,38.4,27.7,29.73,WSW,247,4.0,7.0,65,0.00,,,0.00,Wunderground v.1.15,2013-02-13 19:52:00,
2013-02-13 13:57:00,38.6,27.8,29.73,SW,218,4.0,7.0,65,0.00,,,0.00,Wunderground v.1.15,2013-02-13 19:57:00,
2013-02-13 13:58:00,38.6,27.8,29.73,West,260,4.0,7.0,65,0.00,,,0.00,Wunderground v.1.15,2013-02-13 19:58:00,
2013-02-13 14:02:00,38.7,27.6,29.73,WSW,254,4.0,7.0,64,0.00,,,0.00,Wunderground v.1.15,2013-02-13 20:02:00,
2013-02-13 14:03:00,38.7,27.6,29.73,West,259,4.0,7.0,64,0.00,,,0.00,Wunderground v.1.15,2013-02-13 20:03:00,
2013-02-13 14:04:00,38.8,27.7,29.74,WSW,250,4.0,7.0,64,0.00,,,0.00,Wunderground v.1.15,2013-02-13 20:04:00,
2013-02-13 14:09:00,38.9,27.8,29.73,WSW,254,5.0,8.0,64,0.00,,,0.00,Wunderground v.1.15,2013-02-13 20:09:00,
2013-02-13 14:10:00,38.9,27.8,29.73,WSW,248,5.0,8.0,64,0.00,,,0.00,Wunderground v.1.15,2013-02-13 20:10:00,
2013-02-13 14:11:00,39.0,27.8,29.73,WSW,255,5.0,8.0,64,0.00,,,0.00,Wunderground v.1.15,2013-02-13 20:11:00,
2013-02-13 14:15:00,38.9,27.8,29.73,West,259,6.0,8.0,64,0.00,,,0.00,Wunderground v.1.15,2013-02-13 20:15:00,
2013-02-13 14:16:00,38.8,27.7,29.73,WSW,252,6.0,6.0,64,0.00,,,0.00,Wunderground v.1.15,2013-02-13 20:16:00,
2013-02-13 14:19:00,39.0,27.8,29.73,WSW,250,6.0,6.0,64,0.00,,,0.00,Wunderground v.1.15,2013-02-13 20:19:00,
2013-02-13 14:22:00,39.2,27.7,29.73,West,262,6.0,6.0,63,0.00,,,0.00,Wunderground v.1.15,2013-02-13 20:22:00,
2013-02-13 14:24:00,39.3,27.7,29.73,WSW,246,6.0,9.0,63,0.00,,,0.00,Wunderground v.1.15,2013-02-13 20:24:00,
2013-02-13 14:25:00,39.3,27.7,29.73,WSW,247,6.0,9.0,63,0.00,,,0.00,Wunderground v.1.15,2013-02-13 20:25:00,
2013-02-13 14:30:00,39.5,28.0,29.73,WSW,257,6.0,-999.0,63,-99.99,,,0.00,weatherlink.com 1.10,2013-02-13 20:30:00,
2013-02-13 14:31:00,39.7,28.1,29.73,WSW,238,6.0,8.0,63,0.00,,,0.00,Wunderground v.1.15,2013-02-13 20:31:00,
2013-02-13 14:33:00,39.8,27.8,29.73,West,260,6.0,8.0,62,0.00,,,0.00,Wunderground v.1.15,2013-02-13 20:33:00,
2013-02-13 14:34:00,39.8,27.8,29.73,West,263,6.0,8.0,62,0.00,,,0.00,Wunderground v.1.15,2013-02-13 20:34:00,
2013-02-13 14:39:00,40.0,28.0,29.73,SW,234,5.0,8.0,62,0.00,,,0.00,Wunderground v.1.15,2013-02-13 20:39:00,
2013-02-13 14:40:00,40.0,28.0,29.73,WSW,244,5.0,8.0,62,0.00,,,0.00,Wunderground v.1.15,2013-02-13 20:40:00,
2013-02-13 14:41:00,39.9,27.5,29.73,West,261,5.0,8.0,61,0.00,,,0.00,Wunderground v.1.15,2013-02-13 20:41:00,
2013-02-13 14:44:00,39.6,27.6,29.73,WNW,288,5.0,8.0,62,0.00,,,0.00,Wunderground v.1.15,2013-02-13 20:44:00,
2013-02-13 14:47:00,39.4,27.5,29.73,WSW,248,5.0,8.0,62,0.00,,,0.00,Wunderground v.1.15,2013-02-13 20:47:00,
2013-02-13 14:50:00,39.5,27.5,29.73,West,259,5.0,8.0,62,0.00,,,0.00,Wunderground v.1.15,2013-02-13 20:50:00,
2013-02-13 14:53:00,39.3,27.4,29.73,WSW,247,4.0,8.0,62,0.00,,,0.00,Wunderground v.1.15,2013-02-13 20:53:00,
2013-02-13 14:55:00,39.3,27.7,29.73,WSW,243,4.0,8.0,63,0.00,,,0.00,Wunderground v.1.15,2013-02-13 20:55:00,
2013-02-13 14:56:00,39.3,27.7,29.73,WSW,244,4.0,4.0,63,0.00,,,0.00,Wunderground v.1.15,2013-02-13 20:56:00,
2013-02-13 15:00:00,39.2,27.7,29.73,SW,226,4.0,7.0,63,0.00,,,0.00,Wunderground v.1.15,2013-02-13 21:00:00,
2013-02-13 15:01:00,39.2,28.0,29.73,SW,219,4.0,7.0,64,0.00,,,0.00,Wunderground v.1.15,2013-02-13 21:01:00,
2013-02-13 15:02:00,39.3,28.0,29.73,SW,216,1.0,-999.0,64,-99.99,,,0.00,weatherlink.com 1.10,2013-02-13 21:02:00,
2013-02-13 15:04:00,39.3,28.1,29.73,West,264,3.0,7.0,64,0.00,,,0.00,Wunderground v.1.15,2013-02-13 21:04:00,
2013-02-13 15:06:00,39.2,27.7,29.73,WSW,257,3.0,3.0,63,0.00,,,0.00,Wunderground v.1.15,2013-02-13 21:06:00,
2013-02-13 15:07:00,39.1,27.9,29.73,WSW,244,3.0,6.0,64,0.00,,,0.00,Wunderground v.1.15,2013-02-13 21:07:00,
2013-02-13 15:12:00,39.0,27.5,29.73,WSW,248,4.0,6.0,63,0.00,,,0.00,Wunderground v.1.15,2013-02-13 21:12:00,
2013-02-13 15:13:00,38.9,27.4,29.73,WSW,258,4.0,6.0,63,0.00,,,0.00,Wunderground v.1.15,2013-02-13 21:13:00,
2013-02-13 15:14:00,38.9,27.4,29.73,WSW,254,5.0,6.0,63,0.00,,,0.00,Wunderground v.1.15,2013-02-13 21:14:00,
2013-02-13 15:15:00,38.9,27.4,29.73,WSW,251,5.0,6.0,63,0.00,,,0.00,Wunderground v.1.15,2013-02-13 21:15:00,
2013-02-13 15:19:00,38.9,28.1,29.73,SW,235,4.0,5.0,65,0.00,,,0.00,Wunderground v.1.15,2013-02-13 21:19:00,
2013-02-13 15:21:00,38.9,28.1,29.73,WSW,245,3.0,5.0,65,0.00,,,0.00,Wunderground v.1.15,2013-02-13 21:21:00,
2013-02-13 15:22:00,38.9,28.1,29.74,WSW,245,3.0,5.0,65,0.00,,,0.00,Wunderground v.1.15,2013-02-13 21:22:00,
2013-02-13 15:23:00,38.9,28.1,29.73,WSW,244,3.0,5.0,65,0.00,,,0.00,Wunderground v.1.15,2013-02-13 21:23:00,
2013-02-13 15:28:00,38.9,28.1,29.73,SW,219,2.0,11.0,65,0.00,,,0.00,Wunderground v.1.15,2013-02-13 21:28:00,
2013-02-13 15:30:00,38.9,28.1,29.73,SW,229,2.0,11.0,65,0.00,,,0.00,Wunderground v.1.15,2013-02-13 21:30:00,
2013-02-13 15:32:00,38.9,28.1,29.73,WSW,256,2.0,11.0,65,0.00,,,0.00,Wunderground v.1.15,2013-02-13 21:32:00,
2013-02-13 15:33:00,38.9,28.5,29.73,WSW,256,2.0,11.0,66,0.00,,,0.00,Wunderground v.1.15,2013-02-13 21:33:00,
2013-02-13 15:34:00,38.9,28.1,29.73,WSW,255,2.0,11.0,65,0.00,,,0.00,Wunderground v.1.15,2013-02-13 21:34:00,
2013-02-13 15:35:00,38.8,28.0,29.73,WSW,255,2.0,11.0,65,0.00,,,0.00,Wunderground v.1.15,2013-02-13 21:35:00,
2013-02-13 15:40:00,38.8,28.4,29.73,SSW,196,2.0,11.0,66,0.00,,,0.00,Wunderground v.1.15,2013-02-13 21:40:00,
2013-02-13 15:42:00,38.7,28.3,29.73,WSW,250,3.0,11.0,66,0.00,,,0.00,Wunderground v.1.15,2013-02-13 21:42:00,
2013-02-13 15:44:00,38.6,28.2,29.73,WSW,250,3.0,11.0,66,0.00,,,0.00,Wunderground v.1.15,2013-02-13 21:44:00,
2013-02-13 15:46:00,38.6,28.2,29.73,WSW,257,3.0,11.0,66,0.00,,,0.00,Wunderground v.1.15,2013-02-13 21:46:00,
2013-02-13 15:49:00,38.6,28.2,29.73,WSW,252,3.0,11.0,66,0.00,,,0.00,Wunderground v.1.15,2013-02-13 21:49:00,
2013-02-13 15:50:00,38.5,27.7,29.73,West,267,4.0,11.0,65,0.00,,,0.00,Wunderground v.1.15,2013-02-13 21:50:00,
2013-02-13 15:51:00,38.6,27.8,29.74,West,259,4.0,11.0,65,0.00,,,0.00,Wunderground v.1.15,2013-02-13 21:51:00,
2013-02-13 15:52:00,38.6,27.8,29.74,WSW,239,4.0,11.0,65,0.00,,,0.00,Wunderground v.1.15,2013-02-13 21:52:00,
2013-02-13 15:56:00,38.6,27.8,29.73,WSW,256,5.0,5.0,65,0.00,,,0.00,Wunderground v.1.15,2013-02-13 21:56:00,
2013-02-13 15:57:00,38.6,27.8,29.73,WSW,256,5.0,5.0,65,0.00,,,0.00,Wunderground v.1.15,2013-02-13 21:57:00,
2013-02-13 16:01:00,38.6,27.8,29.73,WSW,252,5.0,9.0,65,0.00,,,0.00,Wunderground v.1.15,2013-02-13 22:01:00,
2013-02-13 16:02:00,38.6,27.8,29.73,WSW,245,5.0,9.0,65,0.00,,,0.00,Wunderground v.1.15,2013-02-13 22:02:00,
2013-02-13 16:03:00,38.6,28.0,29.73,WSW,252,6.0,-999.0,65,-99.99,,,0.00,weatherlink.com 1.10,2013-02-13 22:03:00,
2013-02-13 16:05:00,38.6,27.8,29.73,WSW,251,5.0,9.0,65,0.00,,,0.00,Wunderground v.1.15,2013-02-13 22:05:00,
2013-02-13 16:08:00,38.7,27.6,29.73,West,260,5.0,6.0,64,0.00,,,0.00,Wunderground v.1.15,2013-02-13 22:08:00,
2013-02-13 16:09:00,38.7,27.6,29.73,WSW,254,5.0,6.0,64,0.00,,,0.00,Wunderground v.1.15,2013-02-13 22:09:00,
2013-02-13 16:12:00,38.7,27.9,29.73,WSW,240,5.0,6.0,65,0.00,,,0.00,Wunderground v.1.15,2013-02-13 22:12:00,
2013-02-13 16:13:00,38.7,27.9,29.73,WSW,248,5.0,6.0,65,0.00,,,0.00,Wunderground v.1.15,2013-02-13 22:13:00,
2013-02-13 16:15:00,38.7,27.6,29.73,WSW,245,5.0,6.0,64,0.00,,,0.00,Wunderground v.1.15,2013-02-13 22:15:00,
2013-02-13 16:16:00,38.7,27.6,29.73,WSW,254,5.0,5.0,64,0.00,,,0.00,Wunderground v.1.15,2013-02-13 22:16:00,
2013-02-13 16:17:00,38.7,27.6,29.73,SSW,213,5.0,5.0,64,0.00,,,0.00,Wunderground v.1.15,2013-02-13 22:17:00,
2013-02-13 16:21:00,38.6,27.8,29.73,WSW,239,5.0,5.0,65,0.00,,,0.00,Wunderground v.1.15,2013-02-13 22:21:00,
2013-02-13 16:24:00,38.4,27.7,29.73,SW,236,5.0,5.0,65,0.00,,,0.00,Wunderground v.1.15,2013-02-13 22:24:00,
2013-02-13 16:25:00,38.4,27.7,29.73,WSW,250,4.0,5.0,65,0.00,,,0.00,Wunderground v.1.15,2013-02-13 22:25:00,
2013-02-13 16:27:00,38.4,27.3,29.73,West,265,5.0,8.0,64,0.00,,,0.00,Wunderground v.1.15,2013-02-13 22:27:00,
2013-02-13 16:30:00,38.2,27.5,29.73,WSW,255,4.0,8.0,65,0.00,,,0.00,Wunderground v.1.15,2013-02-13 22:30:00,
2013-02-13 16:32:00,38.2,27.5,29.73,WSW,245,4.0,8.0,65,0.00,,,0.00,Wunderground v.1.15,2013-02-13 22:32:00,
2013-02-13 16:34:00,38.1,27.4,29.73,WSW,239,4.0,8.0,65,0.00,,,0.00,Wunderground v.1.15,2013-02-13 22:34:00,
2013-02-13 16:38:00,38.0,27.6,29.73,West,261,4.0,8.0,66,0.00,,,0.00,Wunderground v.1.15,2013-02-13 22:38:00,
2013-02-13 16:39:00,38.0,27.6,29.73,WSW,253,4.0,8.0,66,0.00,,,0.00,Wunderground v.1.15,2013-02-13 22:39:00,
2013-02-13 16:40:00,38.0,27.6,29.73,West,267,4.0,8.0,66,0.00,,,0.00,Wunderground v.1.15,2013-02-13 22:40:00,
2013-02-13 16:41:00,38.0,27.6,29.73,WSW,250,4.0,8.0,66,0.00,,,0.00,Wunderground v.1.15,2013-02-13 22:41:00,
2013-02-13 16:46:00,37.9,27.5,29.73,WSW,257,4.0,4.0,66,0.00,,,0.00,Wunderground v.1.15,2013-02-13 22:46:00,
2013-02-13 16:47:00,37.9,27.5,29.73,WSW,258,4.0,6.0,66,0.00,,,0.00,Wunderground v.1.15,2013-02-13 22:47:00,
2013-02-13 16:48:00,37.9,27.5,29.73,WSW,245,4.0,8.0,66,0.00,,,0.00,Wunderground v.1.15,2013-02-13 22:48:00,
2013-02-13 16:49:00,37.9,27.5,29.73,WSW,250,4.0,8.0,66,0.00,,,0.00,Wunderground v.1.15,2013-02-13 22:49:00,
2013-02-13 16:53:00,37.8,27.5,29.73,WSW,249,3.0,8.0,66,0.00,,,0.00,Wunderground v.1.15,2013-02-13 22:53:00,
2013-02-13 16:54:00,37.8,27.8,29.73,WSW,249,3.0,8.0,67,0.00,,,0.00,Wunderground v.1.15,2013-02-13 22:54:00,
2013-02-13 16:55:00,37.7,27.7,29.73,WSW,249,3.0,8.0,67,0.00,,,0.00,Wunderground v.1.15,2013-02-13 22:55:00,
2013-02-13 16:57:00,37.7,27.7,29.73,WSW,249,3.0,3.0,67,0.00,,,0.00,Wunderground v.1.15,2013-02-13 22:57:00,
2013-02-13 16:59:00,37.6,27.6,29.73,WSW,249,2.0,3.0,67,0.00,,,0.00,Wunderground v.1.15,2013-02-13 22:59:00,
2013-02-13 17:00:00,37.5,27.0,29.73,WSW,249,2.0,-999.0,67,-99.99,,,0.00,weatherlink.com 1.10,2013-02-13 23:00:00,
2013-02-13 17:05:00,37.3,27.3,29.73,WSW,250,2.0,4.0,67,0.00,,,0.00,Wunderground v.1.15,2013-02-13 23:05:00,
2013-02-13 17:06:00,37.3,27.3,29.73,WSW,250,2.0,2.0,67,0.00,,,0.00,Wunderground v.1.15,2013-02-13 23:06:00,
2013-02-13 17:08:00,37.3,27.3,29.73,WSW,250,2.0,3.0,67,0.00,,,0.00,Wunderground v.1.15,2013-02-13 23:08:00,
2013-02-13 17:11:00,37.2,27.2,29.73,WSW,250,2.0,3.0,67,0.00,,,0.00,Wunderground v.1.15,2013-02-13 23:11:00,
2013-02-13 17:12:00,37.2,27.2,29.73,WSW,250,2.0,3.0,67,0.00,,,0.00,Wunderground v.1.15,2013-02-13 23:12:00,
2013-02-13 17:14:00,37.2,27.2,29.73,WSW,250,3.0,3.0,67,0.00,,,0.00,Wunderground v.1.15,2013-02-13 23:14:00,
2013-02-13 17:18:00,36.9,27.3,29.73,WSW,250,2.0,3.0,68,0.00,,,0.00,Wunderground v.1.15,2013-02-13 23:18:00,
2013-02-13 17:19:00,36.9,27.3,29.73,WSW,250,2.0,3.0,68,0.00,,,0.00,Wunderground v.1.15,2013-02-13 23:19:00,
2013-02-13 17:22:00,36.7,27.5,29.73,WSW,252,2.0,4.0,69,0.00,,,0.00,Wunderground v.1.15,2013-02-13 23:22:00,
2013-02-13 17:25:00,36.7,27.5,29.73,WSW,252,2.0,4.0,69,0.00,,,0.00,Wunderground v.1.15,2013-02-13 23:25:00,
2013-02-13 17:26:00,36.6,27.4,29.73,WSW,252,3.0,3.0,69,0.00,,,0.00,Wunderground v.1.15,2013-02-13 23:26:00,
2013-02-13 17:30:00,36.6,27.4,29.73,WSW,244,3.0,8.0,69,0.00,,,0.00,Wunderground v.1.15,2013-02-13 23:30:00,
2013-02-13 17:31:00,36.6,27.4,29.73,WSW,256,3.0,8.0,69,0.00,,,0.00,Wunderground v.1.15,2013-02-13 23:31:00,
2013-02-13 17:32:00,36.6,27.4,29.73,WSW,256,3.0,8.0,69,0.00,,,0.00,Wunderground v.1.15,2013-02-13 23:32:00,
2013-02-13 17:33:00,36.6,27.4,29.73,WSW,250,3.0,8.0,69,0.00,,,0.00,Wunderground v.1.15,2013-02-13 23:33:00,
2013-02-13 17:37:00,36.7,27.5,29.73,WSW,252,4.0,8.0,69,0.00,,,0.00,Wunderground v.1.15,2013-02-13 23:37:00,
2013-02-13 17:39:00,36.7,27.5,29.73,WSW,244,4.0,8.0,69,0.00,,,0.00,Wunderground v.1.15,2013-02-13 23:39:00,
2013-02-13 17:40:00,36.7,27.5,29.73,WSW,252,4.0,8.0,69,0.00,,,0.00,Wunderground v.1.15,2013-02-13 23:40:00,
2013-02-13 17:43:00,36.7,27.1,29.73,WSW,244,5.0,8.0,68,0.00,,,0.00,Wunderground v.1.15,2013-02-13 23:43:00,
2013-02-13 17:45:00,36.7,27.0,29.73,WSW,246,4.0,-999.0,69,-99.99,,,0.00,weatherlink.com 1.10,2013-02-13 23:45:00,
2013-02-13 17:47:00,36.7,27.5,29.73,WSW,238,4.0,8.0,69,0.00,,,0.00,Wunderground v.1.15,2013-02-13 23:47:00,
2013-02-13 17:49:00,36.6,27.4,29.73,WSW,242,4.0,8.0,69,0.00,,,0.00,Wunderground v.1.15,2013-02-13 23:49:00,
2013-02-13 17:51:00,36.6,27.4,29.73,WSW,249,4.0,8.0,69,0.00,,,0.00,Wunderground v.1.15,2013-02-13 23:51:00,
2013-02-13 17:52:00,36.5,27.3,29.73,WSW,251,4.0,8.0,69,0.00,,,0.00,Wunderground v.1.15,2013-02-13 23:52:00,
2013-02-13 17:55:00,36.5,27.6,29.73,WSW,243,4.0,8.0,70,0.00,,,0.00,Wunderground v.1.15,2013-02-13 23:55:00,
2013-02-13 17:56:00,36.5,27.6,29.73,WSW,257,4.0,4.0,70,0.00,,,0.00,Wunderground v.1.15,2013-02-13 23:56:00,
2013-02-13 17:57:00,36.5,27.6,29.73,WSW,257,4.0,5.0,70,0.00,,,0.00,Wunderground v.1.15,2013-02-13 23:57:00,
2013-02-13 18:00:00,36.5,27.6,29.73,WSW,243,4.0,5.0,70,0.00,,,0.00,Wunderground v.1.15,2013-02-14 00:00:00,
2013-02-13 18:01:00,36.5,27.0,29.73,WSW,246,6.0,-999.0,69,-99.99,,,0.00,weatherlink.com 1.10,2013-02-14 00:01:00,
2013-02-13 18:03:00,36.5,27.6,29.73,WSW,242,5.0,6.0,70,0.00,,,0.00,Wunderground v.1.15,2013-02-14 00:03:00,
2013-02-13 18:04:00,36.5,27.3,29.73,WSW,254,5.0,6.0,69,0.00,,,0.00,Wunderground v.1.15,2013-02-14 00:04:00,
2013-02-13 18:06:00,36.5,27.6,29.74,WSW,246,5.0,6.0,70,0.00,,,0.00,Wunderground v.1.15,2013-02-14 00:06:00,
2013-02-13 18:11:00,36.4,27.5,29.74,WSW,238,5.0,6.0,70,0.00,,,0.00,Wunderground v.1.15,2013-02-14 00:11:00,
2013-02-13 18:13:00,36.4,27.5,29.73,WSW,247,5.0,6.0,70,0.00,,,0.00,Wunderground v.1.15,2013-02-14 00:13:00,
2013-02-13 18:16:00,36.3,27.0,29.73,SW,228,0.0,-999.0,70,-99.99,,,0.00,weatherlink.com 1.10,2013-02-14 00:16:00,
2013-02-13 18:19:00,36.2,27.7,29.73,SW,228,3.0,4.0,71,0.00,,,0.00,Wunderground v.1.15,2013-02-14 00:19:00,
2013-02-13 18:20:00,36.1,27.6,29.73,SW,229,2.0,4.0,71,0.00,,,0.00,Wunderground v.1.15,2013-02-14 00:20:00,
2013-02-13 18:25:00,35.9,27.4,29.73,SSW,210,2.0,4.0,71,0.00,,,0.00,Wunderground v.1.15,2013-02-14 00:25:00,
2013-02-13 18:26:00,35.9,27.7,29.73,SW,217,2.0,2.0,72,0.00,,,0.00,Wunderground v.1.15,2013-02-14 00:26:00,
2013-02-13 18:27:00,35.8,27.7,29.73,SW,219,2.0,7.0,72,0.00,,,0.00,Wunderground v.1.15,2013-02-14 00:27:00,
2013-02-13 18:31:00,35.8,28.0,29.73,WSW,257,4.0,-999.0,72,-99.99,,,0.00,weatherlink.com 1.10,2013-02-14 00:31:00,
2013-02-13 18:32:00,35.8,27.7,29.73,SW,215,2.0,7.0,72,0.00,,,0.00,Wunderground v.1.15,2013-02-14 00:32:00,
2013-02-13 18:33:00,35.7,27.6,29.73,SW,223,2.0,7.0,72,0.00,,,0.00,Wunderground v.1.15,2013-02-14 00:33:00,
2013-02-13 18:36:00,35.7,27.9,29.73,WSW,249,2.0,7.0,73,0.00,,,0.00,Wunderground v.1.15,2013-02-14 00:36:00,
2013-02-13 18:38:00,35.7,27.9,29.74,WSW,248,3.0,7.0,73,0.00,,,0.00,Wunderground v.1.15,2013-02-14 00:38:00,
2013-02-13 18:44:00,35.8,28.0,29.74,WSW,247,4.0,8.0,73,0.00,,,0.00,Wunderground v.1.15,2013-02-14 00:44:00,
2013-02-13 18:45:00,35.8,28.0,29.74,West,264,4.0,8.0,73,0.00,,,0.00,Wunderground v.1.15,2013-02-14 00:45:00,
2013-02-13 18:50:00,35.7,27.9,29.74,WSW,248,4.0,7.0,73,0.00,,,0.00,Wunderground v.1.15,2013-02-14 00:50:00,
2013-02-13 18:51:00,35.7,27.9,29.74,WSW,254,5.0,7.0,73,0.00,,,0.00,Wunderground v.1.15,2013-02-14 00:51:00,
2013-02-13 18:52:00,35.7,27.9,29.74,WSW,258,5.0,7.0,73,0.00,,,0.00,Wunderground v.1.15,2013-02-14 00:52:00,
2013-02-13 18:53:00,35.7,27.9,29.74,WSW,248,5.0,7.0,73,0.00,,,0.00,Wunderground v.1.15,2013-02-14 00:53:00,
2013-02-13 18:56:00,35.7,27.9,29.74,WSW,242,5.0,5.0,73,0.00,,,0.00,Wunderground v.1.15,2013-02-14 00:56:00,
2013-02-13 18:57:00,35.7,27.9,29.74,WSW,251,5.0,5.0,73,0.00,,,0.00,Wunderground v.1.15,2013-02-14 00:57:00,
2013-02-13 19:01:00,35.7,28.0,29.73,WSW,249,8.0,-999.0,73,-99.99,,,0.00,weatherlink.com 1.10,2013-02-14 01:01:00,
2013-02-13 19:02:00,35.6,27.8,29.74,WSW,244,5.0,7.0,73,0.00,,,0.00,Wunderground v.1.15,2013-02-14 01:02:00,
2013-02-13 19:04:00,35.6,27.8,29.74,WSW,251,5.0,8.0,73,0.00,,,0.00,Wunderground v.1.15,2013-02-14 01:04:00,
2013-02-13 19:07:00,35.5,27.7,29.74,West,260,5.0,5.0,73,0.00,,,0.00,Wunderground v.1.15,2013-02-14 01:07:00,
2013-02-13 19:09:00,35.4,27.6,29.74,West,259,6.0,6.0,73,0.00,,,0.00,Wunderground v.1.15,2013-02-14 01:09:00,
2013-02-13 19:12:00,35.4,27.6,29.74,WSW,252,6.0,8.0,73,0.00,,,0.00,Wunderground v.1.15,2013-02-14 01:12:00,
2013-02-13 19:14:00,35.4,27.6,29.74,WSW,249,6.0,8.0,73,0.00,,,0.00,Wunderground v.1.15,2013-02-14 01:14:00,
2013-02-13 19:16:00,35.3,27.0,29.74,WSW,252,5.0,-999.0,73,-99.99,,,0.00,weatherlink.com 1.10,2013-02-14 01:16:00,
2013-02-13 19:21:00,35.3,27.5,29.74,WSW,246,5.0,7.0,73,0.00,,,0.00,Wunderground v.1.15,2013-02-14 01:21:00,
2013-02-13 19:22:00,35.3,27.8,29.73,WSW,246,5.0,7.0,74,0.00,,,0.00,Wunderground v.1.15,2013-02-14 01:22:00,
2013-02-13 19:24:00,35.2,27.7,29.74,WSW,248,5.0,7.0,74,0.00,,,0.00,Wunderground v.1.15,2013-02-14 01:24:00,
2013-02-13 19:27:00,35.2,27.7,29.73,West,261,4.0,6.0,74,0.00,,,0.00,Wunderground v.1.15,2013-02-14 01:27:00,
2013-02-13 19:28:00,35.2,27.7,29.73,West,261,4.0,8.0,74,0.00,,,0.00,Wunderground v.1.15,2013-02-14 01:28:00,
2013-02-13 19:31:00,35.1,28.0,29.73,West,261,2.0,-999.0,74,-99.99,,,0.00,weatherlink.com 1.10,2013-02-14 01:31:00,
2013-02-13 19:32:00,35.0,27.5,29.73,West,261,3.0,8.0,74,0.00,,,0.00,Wunderground v.1.15,2013-02-14 01:32:00,
2013-02-13 19:36:00,34.9,27.8,29.73,West,261,2.0,8.0,75,0.00,,,0.00,Wunderground v.1.15,2013-02-14 01:36:00,
2013-02-13 19:37:00,34.9,27.8,29.73,West,261,2.0,8.0,75,0.00,,,0.00,Wunderground v.1.15,2013-02-14 01:37:00,
2013-02-13 19:38:00,34.9,27.8,29.73,West,261,2.0,8.0,75,0.00,,,0.00,Wunderground v.1.15,2013-02-14 01:38:00,
2013-02-13 19:39:00,34.9,27.8,29.73,West,261,2.0,8.0,75,0.00,,,0.00,Wunderground v.1.15,2013-02-14 01:39:00,
2013-02-13 19:45:00,34.8,27.7,29.73,West,261,2.0,8.0,75,0.00,,,0.00,Wunderground v.1.15,2013-02-14 01:45:00,
2013-02-13 19:46:00,34.7,27.6,29.73,West,261,2.0,2.0,75,0.00,,,0.00,Wunderground v.1.15,2013-02-14 01:46:00,
2013-02-13 19:48:00,34.7,27.6,29.72,West,261,2.0,8.0,75,0.00,,,0.00,Wunderground v.1.15,2013-02-14 01:48:00,
2013-02-13 19:51:00,34.6,27.5,29.72,West,261,2.0,8.0,75,0.00,,,0.00,Wunderground v.1.15,2013-02-14 01:51:00,
2013-02-13 19:52:00,34.6,27.5,29.72,West,261,2.0,8.0,75,0.00,,,0.00,Wunderground v.1.15,2013-02-14 01:52:00,
2013-02-13 19:53:00,34.6,27.5,29.72,West,261,2.0,8.0,75,0.00,,,0.00,Wunderground v.1.15,2013-02-14 01:53:00,
2013-02-13 19:58:00,34.6,27.8,29.72,West,261,1.0,3.0,76,0.00,,,0.00,Wunderground v.1.15,2013-02-14 01:58:00,
2013-02-13 19:59:00,34.6,27.8,29.72,West,261,1.0,3.0,76,0.00,,,0.00,Wunderground v.1.15,2013-02-14 01:59:00,
2013-02-13 20:02:00,34.5,28.0,29.72,West,261,1.0,-999.0,76,-99.99,,,0.00,weatherlink.com 1.10,2013-02-14 02:02:00,
2013-02-13 20:03:00,34.5,27.7,29.72,West,261,1.0,3.0,76,0.00,,,0.00,Wunderground v.1.15,2013-02-14 02:03:00,
2013-02-13 20:05:00,34.5,27.7,29.72,West,261,1.0,3.0,76,0.00,,,0.00,Wunderground v.1.15,2013-02-14 02:05:00,
2013-02-13 20:07:00,34.5,27.7,29.73,West,261,1.0,2.0,76,0.00,,,0.00,Wunderground v.1.15,2013-02-14 02:07:00,
2013-02-13 20:08:00,34.5,27.7,29.73,West,261,1.0,2.0,76,0.00,,,0.00,Wunderground v.1.15,2013-02-14 02:08:00,
2013-02-13 20:13:00,34.4,27.9,29.73,West,261,1.0,2.0,77,0.00,,,0.00,Wunderground v.1.15,2013-02-14 02:13:00,
2013-02-13 20:14:00,34.3,27.8,29.72,West,261,1.0,2.0,77,0.00,,,0.00,Wunderground v.1.15,2013-02-14 02:14:00,
2013-02-13 20:15:00,34.3,27.8,29.72,West,261,1.0,2.0,77,0.00,,,0.00,Wunderground v.1.15,2013-02-14 02:15:00,
2013-02-13 20:18:00,34.3,27.8,29.72,West,261,1.0,2.0,77,0.00,,,0.00,Wunderground v.1.15,2013-02-14 02:18:00,
2013-02-13 20:20:00,34.3,27.8,29.72,West,261,1.0,2.0,77,0.00,,,0.00,Wunderground v.1.15,2013-02-14 02:20:00,
2013-02-13 20:23:00,34.3,27.8,29.73,SW,225,1.0,3.0,77,0.00,,,0.00,Wunderground v.1.15,2013-02-14 02:23:00,
2013-02-13 20:26:00,34.3,27.8,29.72,SW,222,2.0,2.0,77,0.00,,,0.00,Wunderground v.1.15,2013-02-14 02:26:00,
2013-02-13 20:28:00,34.3,27.8,29.73,SW,219,2.0,7.0,77,0.00,,,0.00,Wunderground v.1.15,2013-02-14 02:28:00,
2013-02-13 20:32:00,34.3,28.0,29.73,SW,225,2.0,-999.0,77,-99.99,,,0.00,weatherlink.com 1.10,2013-02-14 02:32:00,
2013-02-13 20:34:00,34.3,27.8,29.73,WSW,243,3.0,7.0,77,0.00,,,0.00,Wunderground v.1.15,2013-02-14 02:34:00,
2013-02-13 20:36:00,34.3,27.8,29.73,SW,232,3.0,3.0,77,0.00,,,0.00,Wunderground v.1.15,2013-02-14 02:36:00,
2013-02-13 20:39:00,34.3,28.2,29.72,SW,232,3.0,7.0,78,0.00,,,0.00,Wunderground v.1.15,2013-02-14 02:39:00,
2013-02-13 20:40:00,34.3,28.2,29.73,SW,233,3.0,7.0,78,0.00,,,0.00,Wunderground v.1.15,2013-02-14 02:40:00,
2013-02-13 20:43:00,34.2,28.1,29.73,SW,223,3.0,7.0,78,0.00,,,0.00,Wunderground v.1.15,2013-02-14 02:43:00,
2013-02-13 20:44:00,34.2,28.1,29.73,SW,223,3.0,7.0,78,0.00,,,0.00,Wunderground v.1.15,2013-02-14 02:44:00,
2013-02-13 20:45:00,34.2,28.1,29.72,SW,219,2.0,7.0,78,0.00,,,0.00,Wunderground v.1.15,2013-02-14 02:45:00,
2013-02-13 20:46:00,34.2,28.1,29.72,SW,221,2.0,7.0,78,0.00,,,0.00,Wunderground v.1.15,2013-02-14 02:46:00,
2013-02-13 20:51:00,34.2,28.1,29.72,SW,224,2.0,7.0,78,0.00,,,0.00,Wunderground v.1.15,2013-02-14 02:51:00,
2013-02-13 20:52:00,34.1,28.0,29.72,SW,223,2.0,7.0,78,0.00,,,0.00,Wunderground v.1.15,2013-02-14 02:52:00,
2013-02-13 20:54:00,34.1,28.0,29.72,SW,226,2.0,7.0,78,0.00,,,0.00,Wunderground v.1.15,2013-02-14 02:54:00,
2013-02-13 20:56:00,34.1,28.0,29.72,SW,219,2.0,2.0,78,0.00,,,0.00,Wunderground v.1.15,2013-02-14 02:56:00,
2013-02-13 20:58:00,34.1,28.0,29.72,SW,227,3.0,5.0,78,0.00,,,0.00,Wunderground v.1.15,2013-02-14 02:58:00,
2013-02-13 20:59:00,34.1,28.0,29.72,SW,228,3.0,5.0,78,0.00,,,0.00,Wunderground v.1.15,2013-02-14 02:59:00,
2013-02-13 21:00:00,34.1,28.0,29.72,SW,231,3.0,6.0,78,0.00,,,0.00,Wunderground v.1.15,2013-02-14 03:00:00,
2013-02-13 21:04:00,34.1,28.0,29.72,SW,215,3.0,6.0,78,0.00,,,0.00,Wunderground v.1.15,2013-02-14 03:04:00,
2013-02-13 21:06:00,34.1,28.0,29.72,SSW,192,3.0,3.0,78,0.00,,,0.00,Wunderground v.1.15,2013-02-14 03:06:00,
2013-02-13 21:08:00,34.1,28.0,29.72,SSW,209,3.0,4.0,78,0.00,,,0.00,Wunderground v.1.15,2013-02-14 03:08:00,
2013-02-13 21:10:00,34.1,28.0,29.72,South,173,3.0,4.0,78,0.00,,,0.00,Wunderground v.1.15,2013-02-14 03:10:00,
2013-02-13 21:12:00,34.1,28.0,29.72,South,186,2.0,4.0,78,0.00,,,0.00,Wunderground v.1.15,2013-02-14 03:12:00,
2013-02-13 21:15:00,34.1,28.0,29.72,South,191,2.0,4.0,78,0.00,,,0.00,Wunderground v.1.15,2013-02-14 03:15:00,
2013-02-13 21:16:00,34.0,27.9,29.72,South,191,2.0,2.0,78,0.00,,,0.00,Wunderground v.1.15,2013-02-14 03:16:00,
2013-02-13 21:17:00,34.0,28.0,29.72,SW,229,4.0,-999.0,78,-99.99,,,0.00,weatherlink.com 1.10,2013-02-14 03:17:00,
2013-02-13 21:22:00,33.9,27.8,29.72,SW,225,2.0,4.0,78,0.00,,,0.00,Wunderground v.1.15,2013-02-14 03:22:00,
2013-02-13 21:23:00,33.9,27.8,29.72,SW,225,2.0,4.0,78,0.00,,,0.00,Wunderground v.1.15,2013-02-14 03:23:00,
2013-02-13 21:26:00,33.9,27.8,29.72,SW,225,2.0,2.0,78,0.00,,,0.00,Wunderground v.1.15,2013-02-14 03:26:00,
2013-02-13 21:27:00,33.8,27.7,29.72,SW,225,2.0,6.0,78,0.00,,,0.00,Wunderground v.1.15,2013-02-14 03:27:00,
2013-02-13 21:29:00,33.8,28.0,29.72,SW,224,2.0,6.0,79,0.00,,,0.00,Wunderground v.1.15,2013-02-14 03:29:00,
2013-02-13 21:32:00,33.8,28.0,29.71,SW,224,2.0,6.0,79,0.00,,,0.00,Wunderground v.1.15,2013-02-14 03:32:00,
2013-02-13 21:35:00,33.7,27.9,29.71,SW,223,2.0,6.0,79,0.00,,,0.00,Wunderground v.1.15,2013-02-14 03:35:00,
2013-02-13 21:36:00,33.7,27.9,29.71,SW,221,2.0,6.0,79,0.00,,,0.00,Wunderground v.1.15,2013-02-14 03:36:00,
2013-02-13 21:37:00,33.7,27.9,29.71,SSW,209,2.0,6.0,79,0.00,,,0.00,Wunderground v.1.15,2013-02-14 03:37:00,
2013-02-13 21:41:00,33.7,27.9,29.71,South,184,2.0,6.0,79,0.00,,,0.00,Wunderground v.1.15,2013-02-14 03:41:00,
2013-02-13 21:42:00,33.7,27.9,29.71,SSW,200,2.0,6.0,79,0.00,,,0.00,Wunderground v.1.15,2013-02-14 03:42:00,
2013-02-13 21:43:00,33.7,27.9,29.71,SSW,200,2.0,6.0,79,0.00,,,0.00,Wunderground v.1.15,2013-02-14 03:43:00,
2013-02-13 21:46:00,33.7,27.9,29.71,SSW,202,3.0,3.0,79,0.00,,,0.00,Wunderground v.1.15,2013-02-14 03:46:00,
2013-02-13 21:47:00,33.7,27.9,29.71,SSW,205,2.0,4.0,79,0.00,,,0.00,Wunderground v.1.15,2013-02-14 03:47:00,
2013-02-13 21:48:00,33.7,27.9,29.71,SSW,209,2.0,6.0,79,0.00,,,0.00,Wunderground v.1.15,2013-02-14 03:48:00,
2013-02-13 21:51:00,33.7,27.9,29.71,South,182,2.0,6.0,79,0.00,,,0.00,Wunderground v.1.15,2013-02-14 03:51:00,
2013-02-13 21:52:00,33.7,27.9,29.71,SW,215,2.0,6.0,79,0.00,,,0.00,Wunderground v.1.15,2013-02-14 03:52:00,
2013-02-13 21:54:00,33.7,27.9,29.71,SSW,212,3.0,6.0,79,0.00,,,0.00,Wunderground v.1.15,2013-02-14 03:54:00,
2013-02-13 21:56:00,33.6,27.8,29.71,South,187,3.0,3.0,79,0.00,,,0.00,Wunderground v.1.15,2013-02-14 03:56:00,
2013-02-13 21:59:00,33.5,27.7,29.71,South,188,2.0,3.0,79,0.00,,,0.00,Wunderground v.1.15,2013-02-14 03:59:00,
2013-02-13 22:00:00,33.5,27.7,29.71,SSW,198,2.0,3.0,79,0.00,,,0.00,Wunderground v.1.15,2013-02-14 04:00:00,
2013-02-13 22:01:00,33.5,28.0,29.71,South,180,3.0,-999.0,79,-99.99,,,0.00,weatherlink.com 1.10,2013-02-14 04:01:00,
2013-02-13 22:06:00,33.4,27.6,29.70,SSW,213,3.0,3.0,79,0.00,,,0.00,Wunderground v.1.15,2013-02-14 04:06:00,
2013-02-13 22:07:00,33.4,27.6,29.70,SSW,210,3.0,4.0,79,0.00,,,0.00,Wunderground v.1.15,2013-02-14 04:07:00,
2013-02-13 22:08:00,33.4,27.6,29.70,SSW,212,3.0,4.0,79,0.00,,,0.00,Wunderground v.1.15,2013-02-14 04:08:00,
2013-02-13 22:13:00,33.2,27.7,29.70,SSW,195,3.0,7.0,80,0.00,,,0.00,Wunderground v.1.15,2013-02-14 04:13:00,
2013-02-13 22:16:00,33.1,27.6,29.70,SSW,209,3.0,5.0,80,0.00,,,0.00,Wunderground v.1.15,2013-02-14 04:16:00,
2013-02-13 22:17:00,33.1,28.0,29.70,SSW,209,5.0,-999.0,80,-99.99,,,0.00,weatherlink.com 1.10,2013-02-14 04:17:00,
2013-02-13 22:19:00,33.0,27.5,29.70,SSW,209,3.0,5.0,80,0.00,,,0.00,Wunderground v.1.15,2013-02-14 04:19:00,
2013-02-13 22:20:00,33.0,27.5,29.70,South,187,3.0,5.0,80,0.00,,,0.00,Wunderground v.1.15,2013-02-14 04:20:00,
2013-02-13 22:22:00,33.0,27.5,29.70,South,187,3.0,5.0,80,0.00,,,0.00,Wunderground v.1.15,2013-02-14 04:22:00,
2013-02-13 22:27:00,32.9,27.7,29.70,SSW,201,3.0,6.0,81,0.00,,,0.00,Wunderground v.1.15,2013-02-14 04:27:00,
2013-02-13 22:29:00,32.9,27.7,29.70,SSW,201,3.0,6.0,81,0.00,,,0.00,Wunderground v.1.15,2013-02-14 04:29:00,
2013-02-13 22:34:00,32.8,27.6,29.69,SSW,203,2.0,6.0,81,0.00,,,0.00,Wunderground v.1.15,2013-02-14 04:34:00,
2013-02-13 22:35:00,32.8,27.6,29.69,SSW,203,2.0,6.0,81,0.00,,,0.00,Wunderground v.1.15,2013-02-14 04:35:00,
2013-02-13 22:40:00,32.6,27.4,29.69,SSW,200,2.0,6.0,81,0.00,,,0.00,Wunderground v.1.15,2013-02-14 04:40:00,
2013-02-13 22:41:00,32.6,27.4,29.69,SSW,192,1.0,6.0,81,0.00,,,0.00,Wunderground v.1.15,2013-02-14 04:41:00,
2013-02-13 22:42:00,32.6,27.4,29.69,SSW,193,2.0,6.0,81,0.00,,,0.00,Wunderground v.1.15,2013-02-14 04:42:00,
2013-02-13 22:43:00,32.5,27.3,29.69,SSW,193,2.0,6.0,81,0.00,,,0.00,Wunderground v.1.15,2013-02-14 04:43:00,
2013-02-13 22:47:00,32.5,27.6,29.69,South,182,2.0,6.0,82,0.00,,,0.00,Wunderground v.1.15,2013-02-14 04:47:00,
2013-02-13 22:48:00,32.4,27.5,29.69,South,182,2.0,6.0,82,0.00,,,0.00,Wunderground v.1.15,2013-02-14 04:48:00,
2013-02-13 22:51:00,32.4,27.5,29.69,South,183,1.0,6.0,82,0.00,,,0.00,Wunderground v.1.15,2013-02-14 04:51:00,
2013-02-13 22:54:00,32.4,27.5,29.69,South,183,1.0,6.0,82,0.00,,,0.00,Wunderground v.1.15,2013-02-14 04:54:00,
2013-02-13 22:55:00,32.4,27.5,29.69,South,183,1.0,6.0,82,0.00,,,0.00,Wunderground v.1.15,2013-02-14 04:55:00,
2013-02-13 22:58:00,32.4,27.5,29.69,South,188,1.0,1.0,82,0.00,,,0.00,Wunderground v.1.15,2013-02-14 04:58:00,
2013-02-13 23:00:00,32.4,27.5,29.69,SSW,196,1.0,1.0,82,0.00,,,0.00,Wunderground v.1.15,2013-02-14 05:00:00,
2013-02-13 23:01:00,32.4,27.5,29.69,SSW,196,1.0,1.0,82,0.00,,,0.00,Wunderground v.1.15,2013-02-14 05:01:00,
2013-02-13 23:02:00,32.4,27.5,29.69,SSW,196,1.0,1.0,82,0.00,,,0.00,Wunderground v.1.15,2013-02-14 05:02:00,
2013-02-13 23:07:00,32.3,27.7,29.69,South,182,1.0,3.0,83,0.00,,,0.00,Wunderground v.1.15,2013-02-14 05:07:00,
2013-02-13 23:09:00,32.4,27.8,29.69,South,182,1.0,3.0,83,0.00,,,0.00,Wunderground v.1.15,2013-02-14 05:09:00,
2013-02-13 23:10:00,32.3,27.7,29.69,South,182,1.0,3.0,83,0.00,,,0.00,Wunderground v.1.15,2013-02-14 05:10:00,
2013-02-13 23:14:00,32.4,27.8,29.69,South,182,1.0,3.0,83,0.00,,,0.00,Wunderground v.1.15,2013-02-14 05:14:00,
2013-02-13 23:15:00,32.3,27.7,29.69,South,182,1.0,3.0,83,0.00,,,0.00,Wunderground v.1.15,2013-02-14 05:15:00,
2013-02-13 23:19:00,32.3,28.0,29.69,SSW,197,0.0,-999.0,83,-99.99,,,0.00,weatherlink.com 1.10,2013-02-14 05:19:00,
2013-02-13 23:20:00,32.3,27.7,29.69,SSW,198,1.0,3.0,83,0.00,,,0.00,Wunderground v.1.15,2013-02-14 05:20:00,
2013-02-13 23:23:00,32.3,27.7,29.69,South,186,1.0,3.0,83,0.00,,,0.00,Wunderground v.1.15,2013-02-14 05:23:00,
2013-02-13 23:26:00,32.3,27.7,29.68,South,186,1.0,1.0,83,0.00,,,0.00,Wunderground v.1.15,2013-02-14 05:26:00,
2013-02-13 23:29:00,32.3,27.7,29.68,South,186,1.0,6.0,83,0.00,,,0.00,Wunderground v.1.15,2013-02-14 05:29:00,
2013-02-13 23:31:00,32.3,27.7,29.68,South,186,1.0,6.0,83,0.00,,,0.00,Wunderground v.1.15,2013-02-14 05:31:00,
2013-02-13 23:36:00,32.3,27.7,29.68,South,191,1.0,6.0,83,0.00,,,0.00,Wunderground v.1.15,2013-02-14 05:36:00,
2013-02-13 23:37:00,32.3,27.7,29.68,South,189,2.0,6.0,83,0.00,,,0.00,Wunderground v.1.15,2013-02-14 05:37:00,
2013-02-13 23:38:00,32.3,27.7,29.68,South,191,2.0,6.0,83,0.00,,,0.00,Wunderground v.1.15,2013-02-14 05:38:00,
2013-02-13 23:43:00,32.2,27.9,29.68,South,188,2.0,6.0,84,0.00,,,0.00,Wunderground v.1.15,2013-02-14 05:43:00,
2013-02-13 23:44:00,32.2,27.9,29.68,South,189,3.0,6.0,84,0.00,,,0.00,Wunderground v.1.15,2013-02-14 05:44:00,
2013-02-13 23:45:00,32.2,27.9,29.68,SSW,192,2.0,6.0,84,0.00,,,0.00,Wunderground v.1.15,2013-02-14 05:45:00,
2013-02-13 23:48:00,32.2,27.9,29.68,South,177,2.0,6.0,84,0.00,,,0.00,Wunderground v.1.15,2013-02-14 05:48:00,
2013-02-13 23:50:00,32.2,27.9,29.68,SSW,201,2.0,6.0,84,0.00,,,0.00,Wunderground v.1.15,2013-02-14 05:50:00,
2013-02-13 23:52:00,32.2,27.9,29.68,SW,217,3.0,6.0,84,0.00,,,0.00,Wunderground v.1.15,2013-02-14 05:52:00,
2013-02-13 23:54:00,32.2,28.2,29.68,South,187,3.0,6.0,85,0.00,,,0.00,Wunderground v.1.15,2013-02-14 05:54:00,
2013-02-13 23:57:00,32.1,28.1,29.68,SSW,196,3.0,3.0,85,0.00,,,0.00,Wunderground v.1.15,2013-02-14 05:57:00,
2013-02-13 23:58:00,32.1,28.1,29.68,South,187,3.0,3.0,85,0.00,,,0.00,Wunderground v.1.15,2013-02-14 05:58:00,